GFSGBSN_sfc_temp_057.txt.gz
Temp
61 61 61 61 60 60 60 60 60 60 60 60 60 60 60 60 61 61 61 61 61 61 61 62 62 62 64 70 79 85 80 80 83 85 84 83 78 77 72 76 80 73 81 85 86 85 82
61 60 60 60 60 60 60 60 60 59 59 59 59 59 59 60 60 60 60 60 60 61 61 62 62 62 66 68 90 86 85 83 84 82 82 83 82 82 78 77 74 80 81 82 83 81 82
60 60 60 60 60 59 59 59 59 59 59 59 59 59 59 59 59 60 60 60 60 61 62 63 63 68 68 76 88 86 84 82 83 84 83 86 86 78 78 76 81 81 75 78 80 81 79
60 60 60 60 59 59 59 59 59 59 59 59 58 58 58 59 59 59 59 59 60 61 62 64 64 65 67 86 84 87 82 84 85 83 85 88 86 80 77 80 78 75 68 65 75 78 80
59 59 59 59 59 59 59 59 58 58 58 58 58 58 58 58 58 58 57 58 61 63 65 65 61 64 70 86 84 86 87 86 85 85 84 95 83 75 76 68 64 64 60 63 71 80 79
59 59 59 59 59 59 58 58 58 58 58 58 57 57 57 57 57 57 57 58 62 62 66 71 78 66 76 81 87 90 84 88 85 83 84 80 72 67 64 62 56 59 61 64 66 76 77
59 59 59 59 59 58 58 58 57 57 57 57 57 57 57 57 57 56 53 62 69 67 67 69 71 74 79 87 89 86 88 87 82 77 68 71 66 61 68 67 69 68 66 64 73 78 74
59 59 58 58 58 58 57 57 57 57 57 57 57 57 56 56 56 56 50 62 66 65 62 76 77 77 84 85 78 85 87 77 75 69 69 66 61 71 74 73 70 68 65 66 71 78 72
58 58 58 58 58 57 57 57 57 57 57 57 56 56 56 55 55 56 57 65 70 62 59 70 75 76 78 81 77 80 85 77 74 68 67 63 70 78 75 72 69 64 63 68 68 72 71
58 58 58 58 57 57 57 57 57 57 56 56 56 56 55 54 58 53 61 68 67 64 53 64 68 77 79 81 76 88 87 83 71 71 69 67 75 75 71 70 70 57 72 73 71 64 58
58 58 57 57 57 57 57 56 56 56 56 56 56 56 55 54 47 56 67 65 67 68 43 72 72 83 75 78 81 82 85 79 73 73 70 68 70 69 69 73 73 69 73 71 69 60 55
58 57 57 57 57 57 56 56 56 56 56 55 55 55 55 52 46 55 61 62 66 54 45 66 74 70 70 71 78 79 80 82 80 73 69 71 75 75 74 78 77 76 69 62 57 54 50
58 57 57 57 57 56 56 56 56 55 55 55 55 54 53 55 57 57 59 63 51 44 64 64 64 66 62 65 69 75 72 67 65 57 57 66 69 73 78 70 71 68 56 48 49 48 49
57 57 57 57 56 56 55 55 55 55 55 55 53 53 50 52 50 57 60 57 41 57 57 67 68 67 62 66 69 71 67 64 66 63 56 57 57 69 77 71 66 61 59 49 43 44 50
57 57 57 56 56 55 55 55 55 55 55 54 52 45 47 51 55 57 57 44 48 54 66 66 66 61 61 66 66 65 63 64 68 67 61 53 57 72 76 75 74 62 57 61 49 44 48
57 57 57 56 56 55 55 55 55 55 54 53 44 44 50 59 60 57 51 45 51 62 67 65 56 61 58 62 62 60 62 68 69 71 64 63 56 68 75 74 71 68 68 56 49 44 42
57 57 57 56 55 55 55 55 55 54 53 52 45 50 62 60 60 55 46 46 56 68 69 61 57 57 61 61 58 56 61 69 71 72 68 59 57 65 69 64 64 64 57 55 53 49 47
57 57 56 56 55 55 55 55 54 53 52 48 44 49 61 62 53 46 47 54 61 65 66 65 63 62 60 63 58 58 60 66 75 69 62 61 57 55 62 68 71 65 61 58 51 49 46
57 57 57 56 55 55 55 55 54 53 52 44 43 47 61 63 48 48 51 59 64 63 64 62 62 65 64 61 54 61 64 73 74 70 60 61 52 50 56 60 65 61 61 57 52 49 47
57 57 57 56 55 55 55 55 54 54 53 46 43 48 54 57 51 54 51 55 58 69 66 66 65 63 59 55 56 56 62 71 73 71 66 64 50 54 51 55 61 61 64 62 55 50 49
56 56 57 56 56 55 55 55 55 54 53 45 43 49 52 48 54 54 55 57 57 58 66 64 58 64 61 51 53 54 59 63 70 68 66 61 54 51 56 62 64 64 65 65 58 56 55
56 56 56 56 56 55 55 55 55 53 52 44 49 50 55 53 52 52 50 55 59 63 62 61 58 63 60 55 58 54 57 53 56 64 59 57 53 52 53 62 63 63 67 66 65 62 60
55 56 56 56 56 56 56 55 55 53 50 44 50 54 53 51 53 49 51 56 60 61 64 65 64 62 60 64 66 62 62 61 59 54 57 55 52 50 49 56 59 54 61 63 63 62 59
55 55 55 55 56 56 56 56 55 53 50 42 44 46 47 48 50 55 59 61 61 62 61 65 64 59 65 68 67 61 57 57 61 58 57 55 51 49 48 50 43 59 66 68 65 64 61
55 55 55 55 56 56 56 56 55 54 53 42 43 46 45 45 51 57 58 59 59 58 60 62 66 64 62 63 56 52 53 56 57 63 57 57 51 49 47 44 53 61 63 62 58 60 62
55 55 55 55 56 56 56 56 56 55 53 42 42 46 45 45 50 58 57 57 53 53 58 63 67 62 62 53 52 43 45 49 51 58 53 52 51 53 44 44 44 54 64 66 64 53 63
55 55 55 55 56 56 56 56 56 56 53 45 44 46 45 43 50 51 54 54 57 53 52 54 57 58 57 50 50 47 47 54 49 47 49 48 45 47 45 45 50 55 59 64 50 50 55
55 55 54 55 55 56 55 55 56 56 55 46 45 47 48 43 47 55 59 53 55 53 50 54 55 55 52 49 48 46 47 50 47 48 45 46 44 42 44 43 44 58 59 51 51 53 57
54 54 54 54 55 55 55 55 55 55 55 51 42 51 51 47 50 54 60 63 62 61 55 52 53 51 52 50 48 46 48 46 44 43 51 45 47 45 47 45 54 56 53 55 53 54 57

GFSGBSN_sfc_temp_060.txt.gz
Temp
61 61 60 60 60 60 60 60 60 60 60 60 60 60 60 60 60 61 61 61 61 61 61 62 62 62 64 67 78 80 80 79 79 82 83 80 76 74 70 73 75 71 77 79 82 80 78
60 60 60 60 60 60 60 60 60 59 59 59 59 59 59 60 60 60 60 60 60 60 61 62 62 62 64 66 85 81 81 79 81 81 80 81 80 80 75 74 71 77 78 78 79 80 79
60 60 60 60 60 59 59 59 59 59 59 59 59 59 59 59 59 60 60 60 60 60 61 62 63 66 67 75 85 83 81 80 81 80 80 82 83 76 74 74 78 77 74 76 77 77 76
60 60 60 60 60 59 59 59 59 58 58 58 58 58 58 58 58 59 59 59 60 61 62 63 63 63 67 82 79 82 79 80 82 80 80 82 83 76 73 78 76 71 66 63 74 76 78
60 59 59 59 59 59 58 58 58 58 58 58 58 58 58 58 58 58 58 58 60 63 65 65 61 63 69 83 81 82 83 83 81 80 79 92 79 71 73 65 62 63 59 60 69 76 74
59 59 59 59 59 58 58 58 58 58 58 58 57 57 57 57 57 57 57 58 61 62 65 69 74 65 74 78 82 84 80 83 82 78 79 77 69 65 62 61 54 56 59 61 63 70 71
59 59 59 59 59 58 58 58 58 57 57 57 57 57 57 57 56 57 53 62 65 64 63 68 68 72 76 83 85 81 83 82 79 76 65 67 64 59 66 65 66 64 61 61 70 73 69
59 58 58 58 58 58 58 57 57 57 57 57 57 56 56 56 56 56 50 63 63 62 57 70 71 73 79 80 75 81 85 75 72 67 66 65 58 70 70 68 66 64 61 62 69 72 68
58 58 58 58 58 58 57 57 57 57 57 56 56 56 56 55 55 55 54 61 63 59 55 67 71 72 74 78 74 78 83 76 71 65 65 61 67 74 71 67 65 59 60 62 66 69 67
58 58 58 58 57 57 57 57 57 56 56 56 56 56 55 53 57 50 58 61 61 60 52 62 66 74 74 75 72 83 85 81 69 69 67 63 70 72 68 67 66 54 67 71 65 62 56
58 58 57 57 57 57 57 56 56 56 56 56 56 55 55 54 45 53 63 56 59 64 42 68 68 78 69 73 74 77 80 78 71 69 67 65 66 66 66 69 69 67 69 65 66 58 53
58 58 57 57 57 57 56 56 56 56 56 56 55 55 54 50 45 52 57 57 63 52 43 63 70 66 64 67 74 75 75 78 76 70 65 67 72 72 71 73 73 71 66 60 54 52 49
58 57 57 57 57 56 56 56 56 56 55 55 55 54 53 53 54 53 55 61 50 42 61 60 60 63 60 63 66 71 69 66 64 56 55 62 65 70 74 67 67 64 55 47 47 47 48
58 57 57 57 56 56 56 56 55 55 55 55 53 52 50 51 48 53 57 56 40 53 54 63 64 61 58 62 63 67 64 62 62 61 53 54 55 66 72 70 66 60 57 48 42 42 48
58 57 57 56 56 55 55 55 55 55 54 54 52 44 44 48 52 53 55 44 47 52 61 62 61 57 58 63 62 62 61 61 66 65 59 51 56 69 72 71 72 58 55 57 47 42 46
58 57 57 56 56 55 55 55 55 55 54 53 42 42 48 53 54 54 51 45 49 58 62 61 52 57 52 59 59 57 57 65 64 68 63 59 54 63 72 70 68 63 65 54 48 43 40
58 57 57 56 56 55 55 55 55 54 53 52 43 48 57 53 52 53 44 44 54 62 64 57 54 55 55 57 55 54 56 66 67 65 64 57 57 60 65 60 61 60 55 51 50 47 45
57 57 57 56 56 55 55 55 54 53 52 47 41 48 56 55 50 40 45 51 58 62 63 63 59 58 57 59 56 56 57 62 70 65 60 57 54 51 61 64 66 62 58 54 50 47 44
57 57 57 56 56 56 55 55 54 53 52 45 40 43 56 57 45 43 47 56 60 60 61 58 58 62 60 56 52 58 61 70 70 65 58 58 51 48 54 58 60 60 58 53 49 47 45
57 57 56 56 56 56 55 55 54 53 53 46 42 45 52 52 48 47 49 52 55 65 63 62 62 59 56 53 53 54 59 67 69 66 66 62 48 51 50 54 57 56 61 58 54 49 48
56 56 56 56 56 56 56 55 55 54 53 45 43 47 53 50 50 48 50 55 55 56 61 61 54 60 58 49 51 51 56 62 67 66 60 59 52 48 53 58 60 61 63 62 56 55 55
56 57 56 56 56 56 56 55 55 54 52 43 47 48 51 51 49 51 49 52 56 59 58 57 55 61 59 54 57 55 56 52 54 61 56 54 51 49 51 60 61 60 63 64 62 58 58
57 56 56 56 56 56 56 56 55 53 49 42 49 51 47 48 49 48 51 55 59 59 63 64 62 58 58 61 63 59 60 60 56 54 55 53 51 49 47 54 57 53 58 61 63 61 60
56 56 56 56 56 56 56 56 55 53 49 41 42 45 45 47 48 52 57 59 60 61 58 64 62 60 62 67 66 61 59 57 59 56 55 52 48 46 47 49 42 56 63 63 63 60 59
56 56 56 56 56 55 56 56 55 54 52 42 41 43 44 43 52 54 58 57 58 58 58 61 64 62 59 62 57 54 54 54 56 58 53 52 49 46 46 43 52 58 59 57 54 52 55
56 55 56 56 56 56 56 56 56 55 53 42 40 42 43 43 51 57 54 56 52 50 55 60 64 61 61 54 54 46 47 50 51 54 52 51 48 50 42 43 43 50 58 62 59 50 56
55 55 55 56 56 56 56 56 56 56 53 44 42 43 44 42 49 51 52 52 54 50 49 51 56 56 55 49 47 45 46 52 47 45 46 46 44 45 43 44 48 54 57 60 50 50 54
55 55 55 55 56 56 56 56 56 56 55 45 42 45 45 42 47 53 59 52 53 50 48 52 52 53 50 46 46 44 45 47 45 46 43 44 42 41 41 41 41 57 58 52 52 53 55
55 55 54 55 55 55 56 56 56 55 54 47 39 48 47 44 48 51 58 62 60 60 53 49 52 50 52 49 46 45 46 45 43 42 49 44 46 44 45 45 53 54 53 55 54 56 57

GFSGBSN_sfc_temp_063.txt.gz
Temp
61 61 61 60 60 60 60 60 60 60 60 60 60 60 60 60 61 61 61 61 61 61 61 61 62 62 78 83 86 86 79 80 85 90 91 90 87 87 83 86 85 83 87 89 92 89 88
61 60 60 60 60 60 60 60 60 59 59 59 59 59 59 60 60 60 60 60 60 61 61 62 62 62 82 78 92 87 85 84 89 89 90 91 90 90 86 84 83 88 88 89 90 87 86
60 60 60 60 60 59 59 59 59 59 59 59 59 59 59 59 59 60 60 60 60 60 61 62 63 70 79 85 92 90 90 90 91 92 90 92 93 90 88 84 88 88 85 90 89 88 86
60 60 59 60 59 59 59 59 59 59 59 58 58 58 59 59 59 59 59 59 59 61 62 64 64 74 81 91 91 88 89 91 91 93 93 94 93 90 87 89 87 84 82 80 87 87 84
60 59 59 59 59 59 59 59 58 58 58 58 58 58 58 58 58 58 57 58 60 63 65 65 73 79 81 87 89 95 93 93 91 91 91 94 92 85 86 82 80 79 77 75 80 87 85
59 59 59 59 59 59 58 58 58 58 58 58 57 57 57 57 57 57 57 58 63 64 69 73 78 77 86 87 92 93 91 93 91 91 88 87 84 82 81 81 71 73 74 77 75 83 86
59 59 59 59 59 58 58 58 58 57 57 57 57 57 57 57 57 56 58 75 79 77 77 80 79 78 83 91 92 91 93 90 91 88 82 80 80 76 80 79 78 77 74 74 80 83 80
59 59 58 58 58 58 58 57 57 57 57 57 57 57 56 56 56 56 60 74 69 70 68 77 76 78 83 88 82 89 94 88 85 80 79 78 75 82 79 78 77 75 74 76 80 81 81
59 58 58 58 58 57 57 57 57 57 57 57 56 56 56 55 55 63 62 72 72 72 68 75 79 81 83 86 82 85 90 87 83 78 78 76 80 79 79 78 76 78 74 76 76 79 80
58 58 58 58 57 57 57 57 57 57 56 56 56 56 55 54 62 59 68 70 70 70 66 73 76 82 81 84 81 90 94 90 82 79 77 78 81 78 77 76 78 74 80 78 76 75 73
58 58 58 57 57 57 57 56 56 56 56 56 56 55 55 54 57 64 70 68 71 70 53 76 78 87 82 82 84 85 89 89 81 78 79 77 76 76 75 78 79 78 79 76 75 75 73
58 58 58 57 57 57 56 56 56 56 56 56 55 55 55 55 55 64 66 68 73 64 51 70 78 78 77 80 82 84 85 89 87 80 78 79 82 82 82 82 81 81 77 73 72 75 68
58 58 57 57 57 57 56 56 56 55 55 55 55 54 53 56 66 63 66 73 62 54 69 68 71 75 73 74 77 80 78 77 76 69 70 77 77 82 83 78 79 78 75 68 65 66 66
58 58 57 57 57 56 56 56 55 55 55 55 54 53 54 57 60 63 70 68 52 61 64 71 72 73 70 73 75 77 74 73 75 75 71 68 67 77 82 81 78 76 76 69 57 61 67
58 58 57 57 56 56 55 55 55 55 55 54 52 57 56 61 59 61 68 57 59 61 68 67 71 68 69 72 72 72 75 75 79 77 72 68 68 78 79 82 83 73 71 75 65 61 65
58 58 57 57 56 55 55 55 55 55 54 53 49 54 61 61 61 65 64 56 61 65 69 69 63 67 64 68 70 70 71 75 75 77 79 75 68 77 80 82 78 79 78 69 69 58 57
58 58 57 56 56 56 55 55 55 54 53 52 55 58 63 62 62 66 58 59 63 69 70 67 65 65 66 66 69 70 70 75 76 75 77 76 74 73 77 76 76 73 73 68 71 67 64
58 57 57 56 56 56 55 55 54 53 52 51 54 58 63 64 62 56 59 61 59 70 71 70 70 69 67 68 68 69 70 74 76 77 72 75 74 69 74 77 78 78 76 74 69 61 64
57 57 57 57 56 56 55 55 54 53 52 48 52 54 65 64 57 58 60 63 66 68 69 68 67 70 71 68 64 69 71 77 77 76 73 73 68 67 68 73 74 74 73 73 68 68 62
57 57 57 56 56 56 55 55 54 54 52 50 51 55 61 62 59 59 60 61 62 69 68 70 69 71 68 67 68 67 70 75 76 74 65 72 65 67 67 69 73 70 71 71 73 68 67
57 57 57 56 56 56 56 55 55 54 52 51 53 56 56 57 59 60 61 61 60 60 68 68 66 67 67 64 66 66 70 74 76 69 72 72 66 66 69 70 71 73 73 71 70 72 72
57 57 56 56 56 56 56 56 55 53 51 52 52 53 57 57 58 58 55 59 59 63 64 65 63 68 67 65 68 66 70 69 71 75 71 69 66 66 69 70 71 71 73 72 72 70 71
57 57 57 56 56 56 56 56 55 52 51 52 56 57 55 54 57 58 60 61 62 64 68 71 69 66 64 70 73 73 74 72 71 70 68 67 67 66 64 66 69 67 69 72 72 70 68
56 56 56 56 56 56 56 56 55 53 51 50 52 51 52 56 56 60 61 61 60 64 62 69 69 67 69 74 73 74 74 72 71 68 68 64 63 64 65 64 56 66 71 72 67 63 65
56 56 56 56 56 56 56 56 55 54 50 51 52 51 52 52 56 61 60 62 63 63 62 66 69 68 68 71 67 62 64 66 66 65 66 65 64 63 61 60 62 65 64 63 63 63 63
56 56 56 56 56 56 56 56 56 55 52 50 51 51 52 50 57 59 58 60 60 60 63 66 70 67 69 66 64 55 56 59 61 63 64 63 63 65 58 56 54 60 64 65 65 63 65
56 55 55 56 56 56 57 56 56 56 53 51 53 51 52 50 58 59 59 57 63 61 58 59 61 63 66 62 58 56 58 60 58 58 59 61 61 60 60 59 59 64 64 66 58 61 64
55 55 55 55 56 56 56 56 56 56 55 52 52 52 53 52 55 59 63 60 63 62 58 62 62 64 65 60 60 59 58 59 58 56 56 57 57 59 57 56 54 64 65 60 61 63 63
55 55 55 55 55 56 56 56 56 55 54 50 51 56 55 50 56 58 63 66 66 67 62 62 60 59 62 61 59 59 59 57 55 52 58 54 59 56 56 58 61 64 62 63 63 61 63

GFSGBSN_sfc_temp_069.txt.gz
Temp
61 61 61 61 61 61 61 61 61 60 60 60 60 60 61 61 61 61 61 61 61 61 62 62 62 63 86 94 100 93 79 81 95 99 102 101 99 99 94 99 100 97 100 102 105 105 103
61 61 61 61 61 60 60 60 60 60 60 60 60 60 60 60 60 60 61 61 61 61 61 62 63 62 89 90 108 99 101 95 102 103 103 104 101 104 98 97 97 100 99 100 104 102 102
61 61 61 61 60 60 60 60 60 60 60 59 59 59 59 59 60 60 60 60 60 61 61 63 64 81 94 96 110 107 104 101 106 106 102 107 107 101 102 97 103 101 94 99 101 102 100
61 60 60 60 60 60 60 60 60 59 59 59 59 59 59 59 59 59 59 59 60 61 62 65 66 89 92 109 113 106 107 105 108 110 108 109 108 102 100 102 99 94 95 88 99 99 102
60 60 60 60 60 59 59 59 59 59 59 59 58 58 58 58 58 58 58 58 60 63 66 69 84 94 92 91 101 108 109 104 106 108 108 107 104 99 99 92 88 91 84 88 92 101 97
60 60 60 60 60 59 59 59 59 59 59 58 58 58 58 58 58 58 57 59 71 67 73 90 95 90 99 97 106 108 111 108 104 103 100 97 97 92 94 90 79 84 86 90 88 95 97
60 60 60 60 59 59 59 59 58 58 58 58 58 57 57 57 57 57 66 93 90 85 91 92 96 95 99 104 106 103 109 104 103 99 89 95 89 85 90 93 93 91 87 86 91 97 93
60 60 59 59 59 59 58 58 58 58 58 58 57 57 57 57 57 57 69 90 85 86 80 96 97 99 103 103 93 101 109 96 94 88 94 91 85 93 96 93 90 88 85 85 91 95 94
60 60 59 59 59 58 58 58 58 58 57 57 57 57 56 56 56 69 88 88 94 94 81 90 98 97 99 103 94 97 103 99 93 88 91 86 92 95 92 89 86 87 85 85 86 92 95
60 59 59 59 59 58 58 58 57 57 57 57 57 56 56 54 65 87 88 91 96 94 74 83 92 97 100 102 92 104 107 99 94 89 91 91 96 92 90 86 89 83 92 91 88 85 79
60 60 59 59 59 58 58 57 57 57 57 57 57 56 55 53 72 83 89 95 96 90 59 88 93 106 103 93 96 98 107 101 89 91 91 87 90 88 85 88 92 86 94 89 88 85 84
60 60 59 59 58 58 57 57 57 57 56 56 56 56 55 77 81 87 92 93 90 70 59 82 92 89 90 93 95 98 99 103 100 92 93 91 99 95 92 94 93 95 90 88 88 86 75
60 60 59 59 58 58 57 57 57 56 56 56 55 55 56 73 82 92 91 85 69 62 83 79 84 89 88 87 89 92 89 88 84 78 79 87 89 95 95 88 93 90 84 73 72 74 73
60 59 59 59 58 57 57 57 56 56 56 55 54 54 66 78 89 88 86 75 59 73 76 88 85 88 83 89 89 90 87 84 90 88 83 78 75 88 94 89 85 86 85 75 65 71 76
59 59 59 59 58 57 57 56 56 56 55 54 53 84 85 88 87 85 77 64 66 74 83 80 83 78 80 86 86 87 86 85 89 91 79 78 79 95 95 96 93 85 81 91 80 82 77
59 59 59 59 58 57 57 56 56 56 55 54 66 78 84 89 86 81 72 61 74 84 83 81 72 79 75 81 81 82 83 89 88 94 96 86 76 91 93 95 94 90 93 79 81 65 64
59 59 58 58 58 58 57 56 56 55 54 54 67 76 83 89 85 76 66 71 77 85 83 78 76 77 79 78 81 81 83 89 92 92 95 91 84 83 90 85 84 85 83 85 86 82 71
59 58 58 58 58 57 57 56 55 54 53 62 75 71 85 87 71 76 72 76 70 81 86 81 81 79 77 80 77 79 81 85 91 93 85 91 86 77 83 92 94 92 86 85 75 71 79
59 58 57 57 57 57 57 56 55 54 53 65 70 76 86 83 67 73 78 77 80 78 79 79 78 81 83 77 72 79 83 89 89 89 85 90 81 73 76 86 91 85 88 89 87 84 74
59 58 57 57 57 57 57 57 56 55 54 61 69 69 78 77 80 72 72 73 73 81 79 81 80 82 79 76 81 75 80 87 88 90 72 83 83 77 73 77 85 80 84 87 85 77 77
58 58 57 57 57 57 57 57 56 55 54 61 72 72 74 70 71 75 74 72 70 72 80 80 76 77 76 71 75 76 81 84 88 72 84 86 74 81 83 84 84 84 84 85 83 83 78
58 58 57 57 57 57 57 57 56 55 54 65 68 70 75 72 73 70 65 68 69 74 76 74 74 77 80 74 75 74 80 81 81 87 84 87 74 80 78 85 84 82 86 86 86 86 85
58 58 57 57 57 57 57 57 56 54 54 71 77 76 70 65 73 71 72 68 70 74 77 80 80 79 77 80 85 87 90 88 86 82 80 79 77 74 70 80 81 74 81 84 86 87 86
58 58 57 57 57 57 57 57 56 55 53 70 72 69 66 66 71 69 71 73 73 75 72 78 81 77 81 88 88 88 90 87 86 85 86 76 74 75 71 67 51 77 87 89 84 84 86
57 57 57 57 57 57 57 57 57 56 54 65 73 69 67 64 74 73 71 68 75 77 76 78 80 82 87 82 75 70 74 75 79 84 81 84 76 71 67 69 75 77 80 82 81 77 81
57 57 57 57 57 57 57 57 57 56 55 62 73 73 67 65 70 72 70 72 70 71 76 78 85 87 86 80 75 63 63 69 69 74 82 81 77 72 70 63 61 68 77 82 82 71 77
57 57 56 57 57 57 57 57 57 56 55 61 71 70 67 63 73 72 69 68 75 74 73 75 75 79 84 75 67 67 63 70 66 66 68 72 70 68 68 65 72 76 78 81 67 66 75
57 56 56 56 56 57 57 57 57 57 57 60 72 74 66 65 71 74 75 70 73 75 69 65 74 77 75 66 69 67 63 62 69 70 67 68 66 68 69 64 60 77 78 68 66 73 74
56 56 56 56 56 57 57 57 57 57 57 56 68 75 74 63 68 75 76 78 77 76 72 76 72 69 70 68 67 73 68 73 67 63 72 62 70 62 64 61 72 77 72 74 76 74 74

GFSGBSN_sfc_temp_072.txt.gz
Temp
62 62 61 61 61 61 61 61 60 60 60 60 60 60 61 61 61 61 62 62 62 62 62 62 62 63 84 92 96 94 80 81 93 95 98 100 97 96 92 96 99 96 98 102 103 103 103
61 61 61 61 61 60 60 60 60 60 60 60 60 60 60 60 60 61 61 61 61 61 62 62 63 62 85 85 108 100 101 94 101 98 100 102 100 102 97 95 94 99 99 99 101 101 103
61 61 61 61 60 60 60 60 60 60 60 60 59 59 59 59 60 60 60 61 61 61 62 63 64 79 89 92 112 108 104 101 104 103 100 106 106 100 99 93 101 99 93 96 98 101 100
61 61 61 60 60 60 60 60 60 60 59 59 59 59 59 59 59 59 60 60 60 62 62 64 66 84 86 109 114 111 108 104 107 109 107 109 109 102 98 100 96 92 92 85 96 100 101
61 61 60 60 60 60 59 59 59 59 59 59 59 58 58 58 59 59 58 59 61 63 65 68 80 87 88 99 103 110 109 102 105 106 108 109 105 96 97 89 85 89 80 84 90 101 98
61 61 61 60 60 60 59 59 59 59 59 58 58 58 58 58 58 58 58 59 71 70 73 88 92 87 96 96 105 108 111 107 102 102 99 98 95 89 90 86 75 80 83 87 86 96 97
61 61 60 60 60 59 59 59 59 59 58 58 58 58 57 57 57 57 63 85 89 85 89 88 93 91 99 106 110 105 108 103 102 98 87 93 85 80 86 90 91 89 86 85 90 96 93
61 60 60 60 59 59 59 59 59 58 58 58 58 57 57 57 57 58 65 86 89 89 78 92 93 96 102 106 96 100 108 95 92 85 91 88 82 90 94 93 91 89 84 83 89 95 92
61 60 60 60 59 59 59 58 58 58 58 58 57 57 57 56 56 68 88 89 97 96 79 84 93 93 97 102 95 96 103 98 91 86 87 84 89 95 92 90 87 86 83 84 84 91 94
61 60 60 60 59 59 58 58 58 58 57 57 57 57 56 54 68 83 85 95 98 97 70 78 87 93 97 99 91 104 105 98 92 86 89 88 95 92 90 87 89 80 91 89 87 84 76
61 60 60 60 59 59 58 58 58 57 57 57 57 57 56 55 70 78 90 95 96 90 53 84 91 105 100 93 95 96 106 98 88 88 89 84 89 88 86 88 92 85 92 89 88 83 81
61 60 60 60 59 59 58 57 57 57 57 57 56 56 56 74 72 81 93 95 89 67 55 78 91 90 90 93 93 97 97 101 99 90 91 89 98 94 92 94 93 94 89 88 87 83 71
60 60 60 60 59 59 58 57 57 57 57 56 56 55 56 69 77 90 91 84 65 58 79 76 80 88 87 86 89 90 88 87 83 76 76 85 87 94 96 88 93 90 83 70 67 69 68
60 60 60 60 59 58 58 57 57 56 56 56 54 54 67 76 86 88 85 72 55 70 73 84 84 86 81 87 87 87 85 82 89 86 80 75 72 87 94 89 84 85 83 71 60 66 72
59 59 60 59 59 58 57 57 57 56 56 55 53 79 84 87 86 87 75 61 63 70 79 78 80 75 78 85 85 85 83 82 87 88 77 76 76 93 93 95 91 83 78 88 76 78 73
59 59 59 59 59 58 58 57 57 56 55 55 62 73 80 94 91 82 70 59 70 80 82 82 71 77 72 78 79 80 80 88 86 92 93 84 73 87 91 95 94 88 91 75 78 62 61
59 59 59 59 58 58 58 57 56 55 54 54 67 74 87 94 89 75 64 68 75 83 83 78 75 74 76 76 77 76 76 85 89 91 93 89 82 80 88 82 83 84 81 82 82 78 67
59 59 58 58 58 58 58 57 56 54 53 62 73 68 88 91 71 73 69 74 69 80 85 82 81 78 75 77 75 75 75 79 86 87 84 89 84 75 79 90 94 89 84 83 73 68 75
59 59 58 58 58 58 58 57 56 54 53 63 66 74 90 86 65 70 77 78 80 79 80 79 77 80 81 75 70 77 79 86 88 86 80 85 79 70 74 83 88 84 86 86 84 80 70
59 59 58 57 58 58 58 58 57 55 55 60 68 68 79 80 78 72 70 72 73 82 79 80 78 80 78 75 79 74 77 84 89 88 73 83 79 73 69 75 82 76 84 86 83 73 74
59 59 58 57 57 58 58 58 57 56 55 60 70 71 76 61 72 74 74 73 71 71 80 81 75 76 74 69 73 73 79 82 86 78 85 83 71 76 81 83 83 80 80 83 80 81 75
59 59 58 57 57 57 58 58 58 56 54 62 66 68 73 70 72 71 67 69 70 72 71 71 72 75 76 72 73 71 77 78 77 83 76 81 71 76 74 82 82 79 83 83 83 84 83
58 58 58 57 57 57 58 58 58 56 54 69 76 75 70 63 70 71 71 70 72 75 76 78 76 75 72 77 83 86 87 85 84 79 74 70 74 71 67 67 68 68 80 77 83 85 83
58 58 58 57 57 57 57 58 58 58 55 67 70 71 65 62 70 69 69 70 73 73 70 75 77 75 81 88 87 86 86 85 86 84 77 59 61 71 67 71 59 71 80 77 81 78 75
58 57 58 57 57 57 57 58 58 58 56 63 70 69 65 61 69 71 71 67 75 74 73 74 78 82 86 82 74 69 70 72 78 83 81 78 73 68 64 66 70 68 66 64 73 63 76
58 57 57 57 57 57 57 58 58 57 56 61 70 75 68 62 65 71 70 73 69 69 72 73 79 84 84 77 72 61 61 67 67 73 83 82 78 70 66 60 57 55 57 60 70 60 72
58 57 57 57 57 57 58 58 58 57 56 59 67 72 67 61 69 71 68 67 73 71 68 73 74 75 82 74 60 59 61 72 65 64 67 70 70 66 66 63 69 73 71 77 60 59 74
57 57 57 57 57 57 57 58 58 58 57 60 67 75 67 62 67 71 75 69 71 72 66 71 71 76 74 66 49 54 53 66 64 55 62 60 58 66 68 64 59 74 75 65 68 71 73
56 57 56 56 56 57 57 57 58 58 57 57 63 77 77 65 66 73 74 76 75 75 70 72 63 56 72 68 68 52 49 64 59 48 60 60 51 55 66 64 72 74 71 74 76 72 73

GFSGBSN_sfc_temp_075.txt.gz
Temp
62 62 61 61 61 60 60 60 60 60 60 60 60 60 60 61 61 61 61 62 61 62 62 62 62 63 71 75 85 88 80 80 85 88 91 90 87 86 81 86 89 84 89 93 93 93 95
61 61 61 61 61 60 60 60 60 60 60 60 60 60 60 60 60 60 61 61 61 61 62 62 63 62 69 73 98 90 91 85 90 88 89 92 89 92 87 86 83 88 90 91 93 93 95
61 61 61 61 60 60 60 60 60 60 60 60 59 59 59 59 60 60 60 60 61 61 62 63 64 73 77 80 98 94 93 89 91 91 89 95 96 89 88 83 91 89 82 87 88 91 91
61 61 61 61 60 60 60 60 60 60 59 59 59 59 59 59 59 60 60 60 61 62 62 64 65 71 69 96 97 99 96 93 96 95 95 98 97 89 82 88 86 80 77 69 86 90 93
61 61 61 61 60 60 60 60 60 59 59 59 59 59 59 59 59 59 58 59 61 64 65 67 65 68 73 96 92 98 99 95 96 96 95 104 94 81 84 74 68 72 66 71 79 91 91
61 61 61 61 60 60 59 59 59 59 59 59 58 58 58 58 58 58 57 60 66 67 68 78 83 71 83 87 96 99 99 100 95 93 91 89 81 73 72 66 58 65 67 72 75 86 89
61 61 61 61 60 60 59 59 59 59 59 58 58 58 58 58 58 58 57 63 78 71 74 74 77 81 89 97 102 97 100 96 94 88 76 82 70 64 71 76 79 79 76 73 79 86 80
61 61 61 60 60 59 59 59 59 59 58 58 58 58 57 57 57 58 55 64 78 77 68 83 85 86 91 94 86 94 99 86 83 75 79 74 69 79 85 84 82 80 74 71 78 86 80
62 61 60 60 60 59 59 58 58 58 58 58 58 57 57 56 57 62 73 76 87 84 67 76 82 82 86 89 85 88 92 88 81 76 77 72 78 88 85 81 79 75 69 72 72 80 80
61 61 60 60 60 59 59 58 58 58 58 57 57 57 56 55 64 68 71 86 87 86 56 69 75 82 84 88 81 95 97 90 83 77 79 77 85 84 83 80 82 64 81 82 79 72 60
61 61 60 60 60 59 59 58 58 58 57 57 57 57 56 55 56 64 76 83 87 77 42 77 81 96 87 80 84 87 98 90 80 80 79 75 80 80 79 81 84 74 83 79 78 68 61
61 61 60 60 60 59 59 58 57 57 57 57 57 57 56 63 57 67 76 80 75 53 46 71 82 79 79 82 83 88 89 93 91 82 82 80 89 86 83 88 87 87 78 74 70 63 53
60 60 60 60 60 59 59 58 57 57 57 57 56 55 55 63 62 77 74 71 51 47 72 68 71 77 77 76 80 82 80 79 73 65 67 76 79 86 89 80 83 78 62 51 49 50 53
60 60 60 60 59 59 58 58 57 57 56 56 55 55 58 66 65 66 69 57 45 62 66 76 76 76 71 77 79 81 77 73 80 76 66 65 63 79 87 80 72 72 65 52 46 48 57
60 60 60 59 59 59 58 57 57 56 56 55 54 65 70 75 73 74 61 48 53 62 72 71 72 68 68 76 76 77 73 73 79 81 69 66 66 84 86 88 83 70 65 70 57 58 53
60 60 59 59 59 59 58 57 57 56 56 55 52 60 68 81 80 70 56 51 60 70 72 72 62 68 63 69 70 70 69 78 75 84 83 75 61 77 84 88 87 77 77 62 57 47 46
59 59 59 59 59 59 58 57 57 56 55 54 54 61 77 85 79 62 51 57 67 76 77 71 67 66 68 67 68 67 68 77 80 79 81 75 72 69 80 75 71 73 73 65 63 58 51
59 59 59 58 59 59 58 57 56 55 53 58 62 56 79 80 59 61 58 65 65 74 78 75 74 71 68 69 66 66 67 74 82 80 71 74 67 65 71 82 85 80 75 73 56 54 56
59 59 59 58 58 58 58 58 56 55 54 53 55 62 78 77 54 59 66 70 74 74 74 73 71 74 73 66 59 68 71 80 84 80 72 69 62 56 56 69 80 75 78 71 64 60 58
60 59 58 58 58 58 58 58 57 56 55 53 56 56 66 68 68 62 61 63 67 78 75 75 71 72 68 64 67 62 69 79 83 81 73 71 62 58 52 60 70 70 73 72 62 55 61
59 59 59 58 58 58 58 58 58 56 55 53 59 60 65 57 61 63 65 65 65 65 74 72 66 69 66 57 61 62 69 73 79 79 76 68 57 64 66 73 77 73 72 73 71 65 63
58 59 59 58 58 58 58 58 58 57 54 53 55 59 62 59 62 62 62 62 66 69 67 65 63 68 69 59 62 61 68 63 66 74 71 67 57 57 61 73 69 71 74 75 73 71 71
58 58 58 58 58 58 58 58 58 57 53 58 64 65 60 56 60 60 62 64 66 69 71 73 71 67 65 69 74 74 74 71 71 68 64 59 56 52 53 63 66 60 63 69 66 64 64
58 58 58 58 57 57 58 58 57 57 55 57 59 60 56 53 59 61 66 70 67 68 65 71 72 65 71 76 76 77 75 73 72 70 68 60 55 52 52 56 46 60 67 67 59 61 63
58 58 58 58 58 58 58 58 57 57 56 55 59 57 56 51 58 61 64 65 67 68 68 69 70 69 71 70 62 57 59 61 66 71 64 64 57 50 50 50 59 62 58 60 56 50 59
57 58 58 58 58 57 58 58 58 57 56 55 59 63 60 53 55 62 59 63 60 60 63 67 73 75 73 66 61 48 48 55 56 63 62 61 59 57 55 48 48 56 61 63 62 47 60
56 58 58 58 57 57 58 58 58 57 56 54 57 60 58 53 60 60 56 57 64 62 59 63 64 64 67 61 55 50 51 60 53 52 52 54 55 55 55 51 55 63 64 64 51 50 62
55 57 57 57 57 57 57 58 58 58 57 56 57 62 59 55 58 63 65 59 61 60 55 61 61 59 55 52 48 48 48 53 54 53 47 50 48 48 49 49 45 67 64 56 59 64 67
55 56 56 56 56 57 57 57 58 58 58 57 54 66 68 59 59 66 66 68 66 66 61 60 58 55 57 53 51 50 47 50 48 46 51 47 50 47 48 48 60 66 62 64 63 64 66

GFSGBSN_sfc_temp_078.txt.gz
Temp
61 61 61 61 61 60 60 60 60 60 60 60 60 60 60 61 61 61 61 61 61 61 62 62 62 63 68 70 78 88 80 80 83 85 84 83 79 77 74 79 82 77 83 86 87 88 90
61 61 61 61 61 60 60 60 60 60 60 60 60 59 60 60 60 60 61 61 61 61 61 62 62 62 66 67 91 85 84 81 85 83 83 83 83 85 80 80 76 82 83 85 86 88 88
61 61 61 61 61 60 60 60 60 60 60 59 59 59 59 60 60 60 60 60 61 61 62 63 63 68 70 76 90 86 85 82 85 84 82 87 89 81 82 78 84 81 76 82 85 85 84
61 61 61 61 61 60 60 60 60 60 60 59 59 59 59 59 59 60 60 59 61 62 63 63 64 66 66 87 86 88 85 85 88 86 87 90 88 82 78 82 79 74 68 63 80 83 87
61 61 61 61 61 60 60 60 60 59 59 59 59 59 59 59 59 59 58 59 61 64 65 65 61 63 67 87 85 87 88 87 88 88 87 97 86 79 78 68 63 63 61 64 74 85 81
61 61 61 61 61 60 60 59 59 59 59 59 59 59 58 58 58 58 58 59 63 62 68 71 78 65 76 81 88 93 88 91 87 85 85 82 76 69 66 61 55 58 60 64 67 80 80
61 61 61 61 61 60 59 59 59 59 59 59 58 58 58 58 58 58 55 62 67 66 72 68 72 73 80 89 93 88 91 87 86 80 70 75 66 61 68 69 72 69 67 66 74 81 75
61 61 61 60 60 59 59 59 59 59 59 58 58 58 58 57 57 58 52 61 65 71 60 75 79 80 84 86 78 85 89 78 77 72 73 68 63 75 77 76 74 72 68 68 74 79 74
61 61 60 60 60 59 59 59 58 58 58 58 58 58 57 56 57 59 59 65 74 70 58 68 76 75 76 80 77 80 83 79 75 71 73 67 74 81 77 75 73 70 64 68 69 75 72
61 61 60 60 60 59 59 59 58 58 58 58 58 57 56 55 60 54 63 71 74 70 49 60 66 75 75 76 73 89 90 82 75 73 74 70 80 77 76 74 75 64 77 76 74 65 58
61 60 60 60 60 59 59 58 58 58 58 57 57 57 56 56 49 54 68 68 71 66 40 70 73 82 76 74 77 81 91 80 73 74 70 70 74 74 72 75 79 72 80 77 75 62 56
60 60 60 60 59 59 59 58 58 58 57 57 57 57 56 54 48 56 64 62 63 51 41 65 75 73 72 76 76 81 81 82 82 74 73 73 81 80 77 82 81 81 73 66 61 56 51
60 61 61 60 59 59 58 58 58 57 57 57 56 55 54 59 54 60 59 60 48 41 64 61 63 69 68 67 72 75 72 70 64 58 59 69 71 78 82 74 79 72 58 51 49 49 50
61 60 60 60 59 59 58 58 57 57 56 56 55 54 53 57 52 57 59 54 39 56 58 68 67 67 60 67 70 73 67 64 69 65 60 59 59 71 82 72 71 68 62 50 45 45 54
59 60 60 59 59 59 58 58 57 56 56 55 54 49 53 61 61 58 55 42 46 55 66 63 63 58 59 68 68 67 65 65 70 69 59 59 59 79 80 82 75 70 62 66 55 48 49
59 59 59 59 60 59 58 57 57 56 55 55 45 46 52 67 64 58 49 45 52 64 67 65 54 59 56 62 61 60 61 72 73 76 72 66 57 70 80 78 82 73 74 57 52 45 45
59 59 59 58 58 59 58 57 56 56 54 54 46 49 63 67 66 54 43 45 58 68 69 62 61 58 61 59 59 58 60 71 74 73 74 61 57 61 70 69 70 67 66 65 61 54 50
60 59 58 58 58 58 58 57 56 54 53 50 45 46 65 68 53 47 46 55 61 67 71 68 65 63 59 60 58 59 60 65 77 71 67 68 59 51 63 76 78 71 68 66 62 54 49
59 59 58 58 58 58 58 57 56 54 52 43 41 46 64 66 46 45 52 60 65 64 66 65 63 65 63 58 53 60 65 74 77 73 62 65 56 50 58 65 73 69 72 68 61 57 62
58 59 59 58 58 58 58 57 56 55 54 45 42 44 53 55 52 49 50 54 58 70 67 66 62 64 59 58 58 57 62 71 76 76 70 65 52 52 47 55 64 63 69 70 63 54 56
57 57 59 59 58 58 58 57 57 56 55 46 43 46 49 43 49 50 48 55 57 58 65 63 60 61 55 50 55 56 61 66 72 72 71 66 54 53 57 64 68 65 65 68 65 61 58
58 58 59 58 58 58 58 57 57 56 54 45 44 46 49 46 49 50 49 52 58 61 60 59 58 63 60 49 52 53 57 56 59 67 64 63 55 54 55 64 66 61 68 68 61 59 62
57 58 58 58 58 58 58 57 56 56 52 45 50 50 48 46 46 46 48 54 58 61 64 66 63 59 59 61 63 65 63 62 63 61 64 59 53 50 51 58 61 52 58 59 56 58 56
56 57 57 57 58 58 58 57 57 55 53 46 47 46 43 42 46 49 53 57 57 59 56 64 63 58 65 68 68 68 66 61 63 63 66 58 54 51 50 52 43 56 64 63 58 57 58
56 57 58 57 58 58 58 57 57 56 55 46 47 46 43 38 47 51 53 53 56 58 58 62 65 65 64 61 55 50 53 55 60 62 60 61 56 52 50 47 52 58 60 58 59 54 59
56 56 57 58 57 58 58 58 57 56 55 47 46 49 45 40 43 54 50 51 47 47 52 59 65 65 64 55 51 43 43 48 49 54 58 55 54 55 50 49 46 53 60 63 61 49 59
55 56 57 58 58 58 58 58 58 57 55 47 46 48 45 41 48 49 46 46 52 49 46 51 56 58 59 47 46 41 43 51 45 43 43 44 45 46 46 48 49 58 61 62 48 49 58
55 55 57 57 57 57 58 58 58 58 57 49 47 50 49 42 49 56 57 49 49 47 45 50 52 54 50 44 42 43 42 45 44 46 43 41 42 40 42 42 40 60 61 54 55 57 59
54 55 57 56 56 57 57 57 58 57 57 53 43 53 55 45 49 58 61 63 60 59 49 48 49 51 51 46 45 47 45 45 43 41 49 43 46 45 45 45 54 56 56 61 58 58 59

GFSGBSN_sfc_temp_084.txt.gz
Temp
62 62 62 61 61 61 61 61 60 60 60 60 60 60 61 61 61 61 61 62 62 61 61 62 62 62 64 64 74 80 80 78 77 80 79 77 73 70 67 70 73 72 75 77 80 79 78
62 62 62 61 61 61 61 61 61 61 60 60 60 60 60 60 60 61 61 61 61 61 61 62 62 62 63 62 84 80 81 79 81 80 78 79 77 76 71 72 71 75 76 77 77 79 81
62 62 61 61 61 61 61 61 61 61 60 60 60 60 60 60 60 60 60 61 60 60 61 62 62 63 65 71 81 79 75 74 78 80 78 80 80 73 72 70 77 74 69 74 76 75 76
61 61 61 61 61 61 61 61 61 60 60 60 59 59 59 59 59 60 60 59 60 61 63 64 63 60 64 79 78 80 74 76 78 77 78 81 81 75 72 74 72 66 62 59 71 74 76
61 61 61 61 61 61 60 60 60 60 60 59 59 59 59 59 59 59 59 59 61 64 64 64 58 59 65 81 76 77 78 78 78 76 76 90 78 70 70 63 58 58 55 56 65 74 72
62 61 61 62 61 61 60 60 60 60 59 59 59 58 58 58 58 58 58 59 62 62 63 69 73 61 72 73 78 82 80 80 78 75 73 74 70 63 60 58 51 52 54 55 59 70 70
61 61 61 62 61 60 60 60 59 59 59 59 58 58 58 58 58 58 54 62 60 60 63 60 63 67 72 78 82 77 80 78 75 71 63 67 60 56 64 63 65 62 59 59 62 70 66
61 61 61 61 60 60 60 59 59 59 59 59 58 58 58 57 57 57 53 59 58 57 51 64 65 67 73 75 69 74 81 70 68 63 64 60 54 66 71 67 65 62 60 57 63 68 65
61 61 61 60 60 60 59 59 59 59 58 58 58 57 57 56 56 55 52 60 61 55 51 62 67 67 71 69 67 69 75 71 67 61 62 60 64 73 70 66 64 60 56 59 60 64 65
61 60 60 60 60 59 59 59 59 58 58 58 57 57 56 54 58 51 57 58 57 57 48 59 65 70 72 69 67 78 78 75 65 64 64 60 69 69 66 65 66 55 67 67 63 58 52
61 60 61 60 60 60 59 59 58 58 58 57 57 57 56 55 49 51 62 54 55 58 41 65 67 77 71 64 72 75 78 69 65 66 64 61 65 63 63 67 68 63 70 67 64 55 50
60 60 60 61 60 60 59 58 58 58 57 57 57 56 56 50 44 51 54 52 58 50 41 58 65 63 62 64 67 73 71 72 71 64 63 64 71 69 68 72 70 71 64 59 52 50 45
60 59 59 59 60 60 58 58 58 58 57 57 56 55 53 54 52 53 53 57 48 41 58 55 56 60 54 58 63 66 64 61 56 49 49 58 63 67 72 63 65 63 53 44 44 44 45
59 59 59 58 58 58 58 58 58 57 56 56 55 54 52 53 49 52 55 54 39 51 51 60 59 57 53 60 60 62 60 56 60 56 50 49 50 64 70 66 62 59 54 46 39 41 46
59 59 58 58 58 57 57 58 57 56 56 55 53 47 47 53 53 49 55 43 44 49 57 57 56 50 51 57 58 57 56 56 60 60 50 47 52 67 70 71 70 59 54 60 53 44 45
59 59 59 58 57 57 57 57 57 56 55 54 44 45 52 56 54 55 49 42 45 55 59 56 47 51 47 53 53 53 54 61 63 66 61 56 50 59 68 68 68 65 67 55 53 42 39
59 59 59 59 58 57 57 57 56 55 54 52 46 52 58 54 56 53 43 42 51 61 61 55 51 51 52 52 51 50 53 63 65 67 62 53 51 57 61 59 59 62 56 59 60 53 43
59 59 58 58 59 57 57 57 55 54 53 48 43 49 59 57 50 39 44 48 56 59 61 58 57 55 52 53 51 52 54 59 69 66 59 55 48 48 58 67 66 66 62 59 52 48 50
59 58 58 57 58 58 57 57 55 53 51 43 40 41 55 57 43 42 47 53 56 57 58 57 55 58 57 52 48 53 58 66 68 65 58 59 48 44 51 59 62 58 62 61 57 50 50
59 58 58 57 57 58 57 57 56 54 53 45 42 45 49 48 43 43 42 47 51 61 59 59 56 57 53 49 49 51 54 63 69 66 67 61 48 48 46 51 58 56 58 60 53 46 48
59 58 57 56 56 58 58 57 56 55 54 46 42 41 43 41 44 41 41 46 49 49 56 57 54 54 50 44 48 48 53 56 63 65 62 57 48 49 54 57 59 59 57 59 54 53 54
58 57 57 57 57 58 58 57 56 55 53 45 43 42 42 40 41 41 41 42 47 51 49 52 49 56 53 47 51 49 50 48 53 58 54 53 52 48 52 60 59 57 57 57 56 56 54
57 57 57 56 57 57 57 57 56 54 51 43 42 43 44 42 40 40 41 44 49 50 54 56 55 52 52 55 59 60 58 58 58 49 49 49 47 45 45 53 55 50 53 54 55 55 53
56 56 56 56 57 57 57 58 56 54 51 45 42 42 42 40 40 44 48 48 49 50 48 55 55 50 59 63 60 56 51 51 51 52 50 47 45 44 44 46 38 50 56 58 55 57 56
56 56 56 56 57 57 57 58 56 55 52 45 42 43 40 36 41 44 46 45 47 49 48 52 58 59 57 53 50 46 47 48 50 54 48 46 45 44 42 39 48 53 53 51 49 53 58
56 56 56 56 56 57 57 58 57 55 53 45 43 43 42 38 40 48 44 45 41 39 45 51 56 55 53 47 45 39 38 42 44 49 50 50 46 46 41 41 41 48 55 57 56 46 58
55 55 55 56 56 57 57 58 58 56 53 46 44 43 43 39 42 44 42 43 45 41 40 43 49 49 51 42 42 39 41 47 40 40 41 42 42 40 41 42 48 55 56 58 44 47 57
55 55 55 55 56 57 57 58 58 57 54 48 45 44 46 38 41 48 51 46 44 43 40 44 45 45 44 42 41 40 40 42 40 43 41 39 39 39 39 40 42 55 57 51 52 55 58
55 55 55 54 55 57 57 57 58 57 56 53 46 47 47 42 44 49 54 57 56 53 46 42 42 42 44 43 42 42 42 43 40 38 45 42 44 42 43 44 51 53 52 56 56 58 60

GFSGBSN_sfc_temp_087.txt.gz
Temp
62 62 62 62 61 61 61 61 61 61 61 61 61 61 61 61 61 61 62 62 62 61 61 61 62 62 73 79 83 85 79 79 84 85 88 87 84 84 80 81 82 80 86 88 90 87 88
62 62 62 62 61 61 61 61 61 61 61 61 60 60 60 60 61 61 61 61 61 61 61 62 62 62 78 74 92 87 85 83 86 86 87 88 88 88 83 81 80 84 85 86 88 89 87
62 62 62 62 61 61 61 61 61 61 60 60 60 60 60 60 60 61 61 61 60 61 62 63 62 67 76 81 88 88 88 88 89 90 88 89 89 86 84 80 85 85 80 85 88 89 87
62 62 61 61 61 61 61 61 61 61 60 60 60 60 60 60 60 60 60 59 60 61 63 64 63 71 77 88 88 87 88 88 88 89 88 91 90 87 83 85 82 79 78 75 85 84 88
62 62 61 62 61 61 61 61 60 60 60 59 59 59 59 59 59 59 58 58 61 64 65 65 71 75 76 85 86 89 89 88 89 86 86 91 88 83 82 78 75 74 72 72 77 84 83
62 62 62 62 62 61 60 60 60 60 59 59 59 59 59 58 58 58 58 59 63 65 67 71 75 73 81 81 85 88 92 89 86 86 81 82 81 78 77 76 67 72 69 71 71 81 83
62 62 62 62 62 61 60 60 61 61 59 59 59 59 58 58 58 58 59 75 74 75 73 71 72 72 78 84 86 84 88 86 84 81 76 77 74 70 75 78 79 74 71 70 75 80 76
62 61 61 61 60 60 60 60 61 60 59 59 59 58 58 57 57 57 63 70 66 68 64 70 70 71 76 79 74 83 86 78 78 75 75 73 70 76 79 79 74 73 71 71 75 77 78
62 61 60 61 61 61 60 60 59 59 59 58 58 57 57 56 56 62 62 66 68 69 64 71 75 75 79 79 76 78 83 80 76 71 74 71 76 79 76 75 71 73 71 72 71 77 78
61 61 60 61 61 60 60 60 59 59 59 58 58 57 56 55 61 60 67 66 66 66 64 69 75 79 82 79 75 84 85 82 76 73 74 73 79 75 74 73 75 69 78 75 73 71 66
60 60 60 60 60 60 59 59 59 59 58 59 58 57 56 55 58 62 64 64 67 67 55 70 74 86 81 76 78 82 86 80 73 74 73 73 72 72 71 74 78 73 80 76 75 71 68
60 60 59 59 59 59 59 58 58 58 58 59 57 56 56 55 55 61 64 64 67 62 52 64 72 70 72 74 75 79 79 82 80 73 73 73 79 76 79 79 79 79 75 71 68 70 61
59 59 59 59 58 58 58 57 58 58 58 57 56 55 54 59 65 62 64 70 62 56 64 62 64 69 66 68 71 73 71 72 69 63 65 70 73 79 79 75 76 76 71 61 59 59 60
59 59 59 58 58 57 57 57 57 57 57 56 55 53 55 58 62 61 67 68 53 57 59 67 66 66 63 68 70 69 70 68 71 70 65 61 62 72 79 75 73 73 72 63 52 56 62
59 59 59 59 58 57 57 57 57 57 56 55 53 61 63 67 62 62 70 58 57 59 64 62 65 61 62 66 65 67 67 66 71 72 61 61 63 77 76 81 80 69 66 78 66 63 60
59 59 59 58 58 57 57 57 57 56 55 54 56 59 66 66 64 68 66 52 58 63 65 64 57 61 57 62 63 65 65 71 69 73 73 67 60 73 75 78 79 76 78 65 66 52 52
59 58 58 58 58 58 57 57 56 55 54 53 60 65 70 67 66 68 59 57 60 68 66 62 61 59 61 60 62 63 64 71 72 72 73 70 63 68 73 71 70 71 70 70 69 65 57
59 58 58 57 57 58 58 57 56 54 52 54 58 63 70 68 65 56 60 59 56 65 68 66 65 63 62 62 61 62 62 66 75 72 66 70 66 61 66 75 75 73 70 70 63 57 65
60 58 58 58 57 57 57 56 55 54 52 54 56 57 69 68 59 59 59 60 62 64 64 65 64 66 66 62 58 62 64 73 73 70 68 70 64 58 62 69 71 66 68 69 65 64 62
59 59 58 57 57 57 57 57 56 55 54 56 57 59 64 61 57 58 56 57 59 66 64 65 64 67 64 62 63 61 63 69 73 71 67 67 63 61 57 61 65 62 65 65 64 59 64
58 58 57 57 56 57 58 57 56 55 54 57 55 53 53 56 57 56 55 55 56 57 63 64 63 63 60 57 60 59 64 66 70 70 70 67 59 62 65 66 65 64 66 64 62 62 58
58 58 57 57 57 57 57 57 56 55 54 58 56 56 54 54 51 54 52 55 55 57 58 60 59 62 62 58 61 59 63 62 61 68 65 67 59 62 61 68 66 63 64 64 61 60 64
57 57 57 57 56 57 57 57 56 54 54 57 54 55 56 49 52 54 56 55 55 56 61 62 61 59 60 63 66 67 68 66 64 61 60 59 60 58 56 64 63 59 58 58 55 57 56
57 57 57 57 56 57 57 57 56 54 54 57 55 56 56 53 53 55 54 54 54 56 55 60 62 57 66 69 69 70 67 64 62 62 63 57 56 59 57 59 49 58 62 61 59 56 56
57 56 56 56 56 57 57 57 57 55 52 58 54 56 55 52 53 53 54 54 56 57 55 57 64 67 66 64 61 58 62 61 61 62 60 59 56 55 54 56 59 59 59 58 59 56 57
56 56 56 56 56 57 57 57 57 55 52 57 56 55 56 53 54 55 54 54 53 53 55 58 65 65 65 62 57 50 50 52 54 58 61 59 55 52 57 52 50 56 59 61 60 50 59
56 56 56 56 56 57 57 57 58 56 52 54 56 54 56 52 57 55 53 55 57 53 53 55 58 60 61 60 56 53 53 55 50 50 52 55 53 51 55 55 57 58 60 62 49 52 60
55 55 55 55 56 56 57 57 58 57 54 55 54 54 56 53 55 56 58 56 56 56 52 56 57 56 58 55 54 55 53 56 52 55 53 52 48 50 50 49 50 59 57 53 56 62 63
55 55 55 55 55 56 57 57 57 57 55 55 52 54 56 53 55 58 61 63 63 63 59 56 53 52 59 56 54 54 52 55 50 50 56 53 57 52 52 53 59 59 57 61 62 64 66

GFSGBSN_sfc_temp_093.txt.gz
Temp
63 63 63 63 62 62 62 62 62 62 61 61 61 61 62 61 62 62 62 62 62 61 62 62 63 63 75 89 95 96 80 81 93 96 100 98 96 95 90 96 98 95 96 100 102 102 102
63 63 63 63 62 62 62 62 63 62 62 61 61 61 61 61 61 61 61 61 61 61 61 62 63 63 85 86 105 105 103 95 100 99 101 102 99 101 95 94 93 97 97 98 100 100 101
63 63 63 63 62 63 63 63 63 63 62 62 61 60 60 61 61 61 61 61 60 60 61 63 65 78 92 93 106 106 104 101 105 104 100 105 104 98 98 93 100 97 91 95 98 100 99
63 63 63 63 63 63 62 62 62 62 62 62 61 60 60 60 60 60 60 60 60 61 63 67 66 87 90 105 108 103 105 104 106 107 104 105 105 99 96 99 95 91 92 85 96 100 99
63 63 62 62 62 62 61 61 61 61 62 62 61 60 60 60 60 59 59 58 61 65 67 67 80 91 91 90 98 105 106 100 104 105 104 104 101 94 95 88 85 88 81 85 89 100 95
63 63 63 63 62 62 62 62 61 61 61 61 61 60 60 59 59 59 58 59 69 66 71 87 92 88 96 91 99 101 106 102 97 99 95 93 93 88 90 86 75 81 83 88 87 95 96
63 63 63 62 62 61 61 61 61 60 60 60 60 60 59 59 58 58 64 91 89 85 95 88 89 89 93 98 101 99 101 99 97 93 85 92 85 81 86 90 89 88 84 82 88 95 91
63 62 62 61 61 60 60 60 60 60 60 59 59 59 59 58 58 58 67 88 81 83 81 92 91 92 96 96 91 96 101 91 89 83 90 87 82 89 91 90 88 86 83 82 88 93 91
62 61 61 61 60 60 60 59 59 59 59 59 59 59 58 57 57 71 88 84 91 90 80 89 93 92 94 96 90 92 97 94 89 86 88 84 89 93 89 87 84 85 81 81 82 89 92
61 61 60 60 60 59 59 59 59 59 59 58 58 58 57 55 64 88 88 89 93 89 77 82 87 92 95 96 88 98 99 93 89 84 86 86 93 88 86 84 87 79 89 87 85 82 75
60 60 60 60 59 59 59 58 58 58 58 57 58 57 56 54 74 87 86 93 92 88 67 82 88 99 96 89 91 92 99 94 84 85 86 82 85 85 82 84 88 82 90 86 85 82 81
61 60 60 60 59 59 59 58 58 58 57 57 57 57 56 72 80 87 92 92 88 73 65 79 86 85 87 90 89 92 92 97 93 86 88 86 94 89 87 89 89 90 85 84 84 82 70
60 60 60 60 59 59 59 58 58 58 57 57 56 55 59 80 85 92 91 87 74 71 80 76 79 84 83 82 85 85 84 85 80 73 76 83 86 91 90 84 89 87 80 69 66 67 66
60 60 60 59 59 58 58 58 57 57 57 56 56 54 67 83 89 91 88 80 66 75 76 82 81 83 79 81 83 82 82 81 85 81 76 73 71 84 89 85 80 81 80 69 58 63 68
60 60 60 59 58 58 57 57 57 57 56 56 54 88 89 93 91 89 82 72 75 75 78 77 81 77 77 80 79 80 80 80 81 82 71 71 72 85 87 89 87 80 76 85 74 75 68
60 60 60 59 58 57 57 57 57 57 56 55 72 86 92 93 93 87 78 68 76 80 80 80 73 76 72 75 76 77 77 83 79 84 85 77 68 82 85 89 89 82 86 73 74 59 56
60 60 59 59 58 57 57 57 57 56 55 56 74 83 89 97 93 82 74 78 77 82 81 77 75 74 75 73 75 76 76 81 83 81 84 81 76 74 81 79 78 79 77 69 73 71 57
59 59 59 59 58 57 57 56 56 55 54 64 82 77 93 95 78 84 78 77 59 80 82 80 78 77 75 75 73 74 74 78 85 83 75 80 75 67 72 84 86 84 62 58 67 49 54
59 59 59 59 58 58 57 56 56 55 54 69 77 81 94 90 73 79 79 78 78 78 79 78 76 78 80 74 68 74 76 83 84 80 75 77 70 63 68 79 75 72 69 60 74 72 63
58 59 59 59 59 58 57 57 57 56 56 65 76 75 83 84 84 75 74 74 74 80 78 79 78 80 76 74 78 72 74 81 83 82 70 75 72 66 63 67 74 68 70 77 76 68 61
58 58 58 59 59 58 58 57 57 57 56 65 79 78 75 74 78 76 75 75 72 72 79 79 75 76 74 69 71 72 77 79 81 77 79 77 65 70 72 74 76 75 74 76 74 71 54
58 58 58 58 58 58 58 58 57 57 56 69 73 74 82 75 74 72 65 72 72 75 74 73 73 76 76 70 72 69 74 73 71 77 75 78 65 69 66 73 74 71 76 77 77 77 74
57 58 58 58 58 58 58 58 57 57 56 76 82 79 74 67 74 71 74 74 73 74 76 78 77 75 72 75 77 79 80 79 78 74 72 71 68 64 60 71 71 66 73 74 74 77 76
57 57 57 58 57 58 58 58 57 56 55 73 78 75 71 68 75 73 75 73 72 73 71 76 76 72 78 85 81 82 83 81 81 80 81 69 66 67 63 66 52 69 80 78 74 75 75
56 56 57 57 57 57 58 58 58 57 55 68 79 73 72 67 74 73 73 72 74 74 71 72 76 80 83 77 69 67 71 73 71 71 74 77 69 62 56 60 66 70 56 70 68 68 73
56 56 56 57 57 57 57 58 58 57 55 65 76 77 71 67 72 73 71 72 69 71 73 75 80 82 79 73 69 59 60 66 65 67 72 75 71 65 62 53 53 62 72 76 74 62 70
55 55 56 57 57 57 58 58 58 57 54 62 76 74 70 67 75 74 69 70 75 71 70 74 74 73 78 70 66 65 66 70 62 58 56 61 62 57 58 56 63 68 73 76 58 56 63
55 55 55 56 56 57 57 58 58 58 56 60 74 76 69 67 73 75 75 70 72 72 66 72 71 72 72 65 66 68 67 65 59 66 63 61 60 59 61 57 52 72 72 61 65 67 68
55 55 55 55 56 56 57 57 58 58 57 56 67 76 76 65 70 76 76 78 77 76 72 73 70 68 73 69 71 72 67 65 65 56 62 59 67 62 61 59 71 74 69 70 71 67 68

GFSGBSN_sfc_temp_096.txt.gz
Temp
64 64 64 63 63 63 63 63 63 63 63 62 62 61 61 61 61 61 62 62 62 61 61 62 62 63 74 85 91 94 81 82 93 95 96 98 95 94 89 93 96 93 96 99 101 101 100
64 64 63 63 63 63 63 62 62 62 62 63 62 61 61 61 61 61 61 61 61 61 61 62 63 63 80 81 108 102 102 96 101 97 98 100 97 100 94 93 91 96 96 96 98 98 99
64 63 63 63 63 63 62 62 62 62 61 62 62 61 61 61 61 61 61 61 61 61 61 63 65 76 86 90 109 109 106 100 102 102 97 103 104 97 96 91 98 96 90 93 95 97 96
64 63 63 63 63 62 62 62 62 61 61 61 61 61 61 60 60 60 60 60 60 61 63 65 67 83 86 107 109 105 106 104 106 107 104 105 105 98 95 97 93 88 89 81 92 96 99
64 63 63 63 62 62 61 61 61 61 61 60 60 60 60 60 60 60 59 59 61 64 67 69 78 85 89 93 99 106 107 100 103 104 104 106 101 93 93 85 81 85 77 81 87 98 97
63 63 63 63 62 62 61 61 61 60 60 60 60 60 59 59 59 59 58 61 72 70 71 87 90 86 95 94 101 103 107 104 99 99 96 95 92 85 86 82 70 77 79 83 83 92 94
63 63 63 62 62 61 61 60 60 60 60 60 59 59 59 59 59 58 62 84 88 84 89 90 91 92 95 101 104 101 103 99 98 93 83 91 83 79 84 87 87 86 83 81 86 93 89
63 62 62 61 61 60 60 60 59 59 59 59 59 59 58 58 58 57 68 88 85 87 78 96 95 95 99 100 92 98 103 92 89 82 88 85 79 88 92 90 87 85 81 80 87 91 89
62 61 61 61 60 60 59 59 59 59 58 58 58 58 58 57 57 67 91 87 96 95 79 90 96 95 96 98 92 94 99 96 89 85 86 82 87 94 91 88 84 85 81 81 81 87 90
61 61 60 60 60 60 59 59 59 59 58 58 57 57 57 56 65 89 89 94 97 95 74 83 88 94 96 98 90 101 101 94 89 84 87 85 92 89 87 84 86 78 88 87 84 80 72
61 61 60 60 60 60 59 59 58 58 58 58 57 57 56 55 71 87 90 97 96 90 64 85 90 102 97 90 93 94 101 94 84 85 86 81 85 84 82 84 88 80 88 84 83 79 77
61 61 60 60 60 59 59 58 58 58 58 57 57 57 56 74 77 92 96 96 91 71 64 81 89 88 89 92 92 94 94 96 95 86 88 87 94 90 88 90 89 89 84 83 82 79 67
61 61 60 60 59 59 58 58 58 57 57 57 57 56 57 76 86 96 96 88 72 67 84 80 82 87 87 85 87 87 86 85 81 73 75 82 86 92 92 83 88 86 79 66 64 65 65
61 60 60 60 59 58 58 58 57 57 57 56 56 56 69 83 92 95 90 78 64 79 79 87 85 85 81 85 85 84 83 81 87 81 76 71 69 83 88 83 78 80 78 66 54 59 65
61 60 60 60 59 58 58 57 57 57 56 56 54 86 86 92 94 92 81 70 74 78 82 80 82 78 81 83 81 82 82 81 84 83 70 69 70 85 87 88 86 78 72 83 71 72 68
60 60 60 60 59 58 58 57 57 57 56 56 66 81 90 98 97 89 77 66 79 84 83 83 74 79 74 79 77 80 79 84 81 85 85 76 65 80 85 87 87 83 86 70 72 55 53
60 60 60 59 59 58 58 57 57 56 56 56 72 81 93 99 96 82 71 78 81 86 83 79 77 76 78 76 78 77 78 83 85 82 83 80 73 71 79 76 75 76 72 71 70 64 54
60 60 59 59 59 58 58 57 56 55 54 65 81 75 95 97 78 81 77 80 63 83 86 81 81 78 76 78 75 75 76 81 85 83 75 79 72 65 70 81 86 81 72 69 61 60 65
59 59 59 59 59 59 58 57 56 55 55 65 73 80 97 93 71 77 84 81 83 80 81 81 79 81 81 76 69 76 78 85 85 81 74 76 68 60 65 76 81 74 77 74 67 67 60
58 58 59 59 59 59 58 57 57 56 56 63 73 74 85 86 85 77 75 76 77 85 80 81 79 81 77 74 78 73 76 83 86 83 72 76 71 65 60 64 72 68 73 76 73 61 60
57 58 58 58 59 59 58 58 57 57 57 63 75 76 80 71 78 76 77 76 74 75 82 81 76 77 75 70 72 72 77 79 83 77 79 76 64 68 70 72 73 71 72 74 72 72 67
57 57 58 58 58 59 59 58 58 57 56 65 71 73 78 74 76 74 69 72 72 77 78 76 74 78 78 72 72 69 74 73 71 77 75 77 64 68 65 72 73 70 74 76 76 76 75
57 57 58 58 58 58 58 58 58 57 57 71 81 82 75 67 73 73 74 75 76 79 78 80 78 76 74 77 80 79 80 78 77 72 71 71 68 64 58 69 69 63 65 69 68 67 63
56 56 57 57 58 58 58 58 58 57 56 67 71 76 69 66 73 74 78 78 75 76 72 78 79 74 79 85 83 81 80 79 79 78 80 71 67 66 60 64 52 68 71 69 68 70 71
56 56 56 57 57 58 58 58 58 57 56 64 72 72 70 64 72 74 76 75 77 76 74 75 78 81 84 78 69 64 68 70 74 77 77 76 67 63 58 58 65 54 54 54 64 64 69
56 56 56 56 57 58 58 58 58 57 56 62 70 77 72 65 68 75 72 74 70 72 74 77 84 84 80 73 67 56 57 65 65 68 76 75 65 55 58 47 48 51 56 65 64 57 67
56 56 56 56 56 57 58 58 58 58 56 60 69 76 70 64 73 74 70 69 75 73 70 74 76 75 79 68 63 62 64 73 63 62 59 64 63 57 53 51 61 65 72 77 55 54 66
56 56 56 55 56 57 57 58 58 59 58 60 65 77 70 65 70 75 77 71 73 73 67 73 71 74 71 65 65 67 66 69 65 67 63 60 54 58 55 51 48 73 71 60 61 69 68
55 55 56 55 55 56 57 57 58 58 58 57 59 78 78 67 68 75 76 78 77 76 72 72 70 69 73 67 69 69 66 69 63 59 69 58 54 49 62 61 69 74 69 72 72 70 69

GFSGBSN_sfc_temp_102.txt.gz
Temp
64 63 63 63 62 62 62 62 62 61 61 61 61 61 61 61 61 61 61 61 61 61 61 61 62 62 61 64 73 86 81 80 83 84 83 83 78 76 72 75 79 74 79 82 84 83 85
64 63 63 63 62 62 62 62 62 61 61 61 61 60 60 61 61 61 61 61 60 60 61 61 62 62 63 64 90 86 84 82 85 82 82 84 82 83 77 76 74 79 79 80 82 83 84
63 63 63 62 62 62 62 62 61 61 61 60 60 60 59 60 60 60 60 60 60 60 61 62 63 67 68 72 90 86 84 84 86 84 81 86 86 79 78 76 81 78 72 76 81 80 80
63 63 62 62 62 61 61 61 61 60 60 59 59 59 59 59 59 59 59 59 59 61 62 63 64 65 65 88 85 90 85 85 87 85 86 88 85 79 75 79 76 71 65 59 76 80 82
63 62 62 62 62 61 61 60 60 60 59 59 59 59 59 59 59 59 58 58 61 63 64 65 61 62 69 88 87 90 89 87 85 86 85 96 82 74 76 66 60 60 57 61 70 82 79
62 62 62 62 61 61 60 60 60 59 59 59 59 59 59 59 59 58 58 59 64 64 67 74 78 66 78 84 88 91 89 91 86 83 83 81 73 66 63 60 51 57 57 61 65 78 77
62 62 61 61 61 60 60 60 59 59 59 59 59 58 58 58 58 58 55 64 67 67 67 67 70 76 82 91 92 88 90 86 83 78 66 72 65 59 66 66 71 67 64 63 71 78 69
61 61 61 61 60 60 59 59 59 59 59 59 58 58 58 58 58 57 54 69 69 73 63 77 78 79 85 87 82 87 91 79 75 68 69 66 60 72 75 74 70 68 64 63 69 76 70
61 61 60 60 60 59 59 59 59 59 58 58 58 58 57 57 56 62 64 71 76 71 59 72 80 79 82 85 81 84 86 81 75 68 68 62 70 80 77 73 70 65 61 63 65 69 70
61 60 60 60 60 59 59 59 59 58 58 58 58 58 57 55 63 60 68 76 75 74 54 67 72 82 84 81 77 92 89 84 75 69 72 67 77 77 73 72 69 57 73 72 70 63 55
61 60 60 60 60 59 59 59 58 58 58 58 58 57 56 55 54 61 75 73 73 70 49 76 76 88 79 78 79 83 91 80 73 74 68 68 72 72 71 72 75 67 74 70 68 59 53
61 60 60 60 59 59 58 58 58 58 58 58 57 57 57 56 52 63 67 69 69 57 52 72 79 74 71 75 80 82 81 82 80 73 72 71 78 74 72 77 75 77 68 63 60 53 47
60 60 60 59 59 59 58 58 58 58 58 57 57 56 55 61 64 67 68 65 55 52 73 69 67 69 68 70 74 78 75 69 64 56 56 67 69 74 79 68 72 69 57 47 44 45 45
60 60 59 59 59 58 58 58 58 57 57 57 56 54 56 61 59 66 65 60 49 67 66 72 72 70 65 69 72 75 70 66 70 64 56 54 56 68 75 67 62 61 55 46 39 40 49
59 60 59 59 58 58 58 58 57 57 57 56 55 57 60 67 66 65 61 50 54 63 72 70 70 65 65 71 70 71 66 66 68 64 56 52 56 72 75 74 67 62 54 58 49 44 45
58 59 59 59 58 58 58 58 57 57 56 56 50 54 60 74 70 65 56 50 59 72 72 70 60 64 59 64 64 63 63 69 69 71 64 56 50 61 72 72 70 62 65 52 47 39 37
57 58 59 58 58 58 58 57 57 56 55 55 55 57 70 73 72 60 50 52 66 77 75 67 62 61 62 61 61 60 61 70 72 69 68 54 52 56 63 57 57 59 54 53 50 46 40
57 57 57 58 58 58 57 57 56 55 54 54 51 53 72 73 60 51 52 62 67 73 74 69 68 65 63 65 60 61 62 67 75 70 61 60 51 45 55 65 69 63 56 51 44 45 45
56 56 57 57 57 58 57 57 56 54 53 49 46 50 69 71 52 51 58 66 70 68 69 66 66 68 65 60 56 63 67 75 76 68 60 58 49 42 47 53 61 55 60 55 50 45 44
57 56 56 56 56 57 58 57 56 55 55 50 48 49 59 61 57 53 54 58 62 73 70 70 67 66 62 59 58 58 63 73 74 71 68 62 48 47 42 49 54 54 61 64 56 43 46
57 56 56 56 56 57 59 58 57 56 56 50 49 50 55 49 54 54 51 57 60 61 67 65 63 64 59 50 55 56 61 63 69 67 63 58 49 49 54 58 60 61 61 61 52 50 45
57 57 56 56 56 57 57 58 57 56 54 50 48 50 53 51 53 54 51 52 59 64 61 64 58 65 61 52 52 51 54 51 56 61 53 54 48 47 48 60 61 59 61 60 59 57 55
57 57 56 56 56 56 57 58 57 56 53 48 53 54 52 50 50 49 51 57 62 63 66 66 64 59 59 61 63 61 59 59 59 54 54 50 47 44 43 55 56 49 54 58 56 55 53
57 56 56 56 56 56 56 57 58 56 54 48 49 49 46 47 50 52 59 61 60 61 57 68 64 58 66 67 65 58 56 57 59 59 56 51 46 45 46 46 39 52 59 61 59 57 56
57 56 56 56 56 56 56 57 57 57 56 49 50 48 46 43 51 54 58 56 58 58 59 62 67 67 65 61 53 49 49 50 56 61 59 58 50 44 43 40 49 54 56 55 51 51 59
57 56 57 57 57 56 56 57 57 57 56 52 50 55 47 44 47 58 53 54 50 49 54 59 67 65 63 53 50 40 40 46 49 56 57 54 53 49 45 41 39 49 58 61 59 44 59
56 56 57 56 57 56 56 56 57 57 56 50 52 56 52 46 51 52 49 49 54 50 49 52 58 60 58 47 45 43 43 52 46 48 48 46 45 44 45 41 47 57 62 61 44 47 58
55 56 56 56 57 57 56 56 57 58 57 52 50 55 50 46 50 58 60 52 52 50 47 52 53 54 50 46 45 45 43 48 46 48 47 44 41 40 41 38 39 60 62 54 53 55 58
55 55 55 55 56 56 56 56 56 57 57 56 50 61 61 49 50 59 63 65 62 61 52 50 51 49 52 48 47 46 46 46 43 41 49 44 46 43 45 44 52 56 56 58 58 57 57

GFSGBSN_sfc_temp_105.txt.gz
Temp
64 63 63 63 62 62 62 61 61 61 61 60 60 60 60 60 60 61 61 61 61 60 61 61 61 62 59 62 72 82 80 79 80 82 81 79 76 74 67 72 75 71 74 76 79 78 78
63 63 63 62 62 62 61 61 61 61 60 60 60 60 60 60 60 60 60 60 60 60 60 61 61 61 61 63 85 83 81 80 82 81 80 80 79 80 72 72 69 74 76 75 77 80 80
63 63 62 62 62 61 61 61 61 61 60 60 60 59 59 60 60 60 60 60 60 60 60 61 62 65 66 73 86 82 81 80 81 81 79 82 83 76 74 72 76 73 70 72 77 74 75
62 62 62 62 61 61 61 61 61 60 60 60 59 59 59 59 60 60 60 59 59 61 61 62 63 62 65 84 82 84 78 80 82 80 81 83 82 75 72 76 73 67 61 58 72 74 77
62 62 61 61 61 61 60 60 60 60 59 59 59 59 59 59 59 59 59 58 62 63 64 64 60 62 69 83 81 83 84 82 81 80 80 93 80 70 72 63 58 58 54 58 66 76 73
62 62 61 62 61 61 60 60 60 59 59 59 59 59 59 59 59 59 58 59 64 63 66 71 75 65 76 80 84 86 81 85 82 79 79 75 69 64 59 58 51 54 54 57 61 70 73
61 61 61 61 61 60 60 60 59 59 59 59 59 59 58 59 58 58 56 63 66 64 65 64 66 72 77 84 88 85 87 85 80 76 64 68 62 59 63 63 67 63 59 59 67 74 65
61 61 61 61 60 60 59 59 59 59 59 59 59 58 58 58 58 57 55 68 65 69 61 72 73 74 80 80 77 83 87 76 72 66 67 64 59 69 70 69 65 63 59 60 65 71 66
61 61 60 60 60 59 59 59 59 59 59 58 58 58 58 57 56 62 60 67 70 64 56 68 74 74 76 79 77 79 84 77 72 65 65 61 69 76 72 69 65 59 56 59 62 66 65
60 60 60 60 60 59 59 59 59 59 58 58 58 58 57 55 62 57 67 70 67 68 53 67 70 78 79 79 74 87 86 81 71 68 67 64 72 73 68 66 65 51 67 68 66 59 52
60 60 60 60 59 59 59 59 58 58 58 58 58 58 57 55 52 61 70 64 66 68 49 73 72 83 74 74 76 80 85 77 70 70 67 65 69 68 67 68 70 64 70 66 64 56 50
60 60 60 59 59 59 58 58 58 58 58 58 58 58 56 54 50 59 63 63 67 56 50 69 74 71 68 71 76 79 78 79 76 69 67 67 74 70 68 73 70 72 65 59 53 50 45
59 60 60 59 59 59 58 58 58 58 57 57 57 56 54 59 64 61 63 64 55 50 68 65 64 66 62 67 71 74 71 66 62 55 55 64 65 70 74 65 67 64 52 43 43 43 43
58 58 59 59 58 58 58 58 58 57 57 57 56 54 55 59 55 62 63 60 47 62 62 68 67 65 63 66 68 71 67 61 65 60 53 52 54 66 72 63 59 56 51 45 36 38 44
57 58 58 59 59 58 58 57 57 57 57 56 54 55 56 62 61 60 61 50 52 59 68 67 65 60 60 66 65 66 61 61 64 60 54 50 54 68 70 69 64 58 50 54 46 41 41
57 57 57 58 57 58 58 57 57 57 56 55 50 51 59 67 66 63 55 49 55 66 71 66 56 60 56 61 61 59 60 65 65 67 62 56 49 58 68 68 66 56 61 49 45 37 36
57 56 56 56 56 57 57 57 56 56 55 54 53 56 67 65 67 59 49 50 61 72 71 64 60 58 58 58 57 55 58 66 69 66 62 54 52 55 60 56 53 55 52 50 46 43 38
57 56 56 56 56 56 56 57 56 54 53 52 49 53 67 68 57 45 50 57 63 68 69 65 65 62 58 59 56 58 58 63 71 67 57 54 48 44 52 61 64 58 52 48 42 41 42
57 56 56 56 56 56 56 57 56 54 53 49 44 46 63 66 49 48 54 61 65 65 65 64 63 65 62 57 52 59 63 70 70 65 56 56 47 41 46 52 57 53 55 51 47 41 41
57 57 56 56 56 56 56 58 56 55 54 48 47 48 55 56 51 49 50 54 59 69 65 66 63 63 58 55 56 54 59 67 70 66 65 60 45 46 41 48 52 51 56 58 48 40 41
57 56 56 56 56 56 56 57 56 56 55 49 47 48 50 46 50 49 48 54 56 56 64 63 60 59 54 48 50 51 56 59 65 64 60 56 48 48 50 54 55 55 56 58 51 50 45
57 56 56 56 56 56 56 56 56 56 54 48 46 47 49 47 48 50 49 49 54 58 56 59 55 60 57 51 53 49 51 49 53 56 52 50 47 45 46 56 56 55 59 59 57 56 52
56 56 56 56 56 56 56 56 56 55 53 46 49 50 49 47 47 47 47 52 56 57 59 62 61 56 55 59 62 62 60 58 58 55 50 50 46 42 39 50 52 47 54 56 55 54 52
57 57 56 56 56 56 56 56 56 55 54 50 46 46 45 44 46 50 54 57 57 56 53 62 60 54 63 64 62 56 51 54 56 56 53 46 44 42 39 42 35 51 57 59 55 57 56
57 57 57 56 56 56 56 56 56 56 55 52 53 51 49 42 47 51 53 51 54 54 54 58 62 63 59 56 52 47 47 50 53 55 50 52 44 41 40 39 47 52 54 54 50 51 57
57 57 57 57 57 56 56 56 56 56 54 52 52 55 50 45 45 55 50 50 47 45 50 56 63 61 58 49 48 38 39 43 45 51 50 48 47 43 41 38 38 49 58 60 56 43 57
55 56 56 57 57 57 56 56 56 56 55 52 52 56 52 47 53 50 47 47 51 46 45 48 55 56 53 45 43 41 41 49 43 42 43 42 43 41 40 40 46 57 60 60 43 45 56
55 55 56 56 57 57 57 56 56 56 56 52 50 56 52 46 49 54 57 51 49 48 44 50 50 50 47 43 43 42 41 45 42 45 42 42 40 38 40 40 40 59 57 49 51 54 57
55 55 55 55 56 56 57 56 56 56 56 55 49 58 58 47 47 53 58 62 58 57 50 47 47 46 49 45 43 43 44 43 41 40 46 42 45 42 44 46 54 54 55 57 56 56 58

GFSGBSN_sfc_temp_108.txt.gz
Temp
63 63 63 62 62 61 61 61 61 61 61 61 61 61 61 61 61 61 61 61 61 60 60 60 60 61 58 60 71 78 79 79 77 80 79 76 73 71 65 69 70 67 71 74 77 76 74
63 63 62 62 62 61 61 61 61 61 61 60 60 60 60 60 61 61 61 60 60 60 60 61 61 61 60 62 81 80 78 78 79 77 77 78 77 77 70 69 67 72 71 73 73 75 75
63 62 62 62 61 61 61 61 61 61 60 60 60 60 60 60 61 61 60 60 60 60 60 61 61 63 65 73 81 79 78 77 79 78 76 78 79 74 71 69 73 72 68 70 72 70 71
62 62 62 61 61 61 61 61 61 60 60 60 60 60 60 60 60 60 60 59 60 61 61 62 63 60 65 80 79 81 77 76 79 77 78 79 80 73 69 72 70 64 60 57 69 71 73
62 62 61 62 61 61 61 60 60 60 60 59 59 59 59 60 59 59 58 59 63 63 64 64 58 60 68 79 79 79 79 78 79 78 77 90 77 67 69 61 57 57 52 54 64 71 71
62 61 61 62 61 61 60 60 60 60 59 59 59 59 59 59 59 58 57 59 64 63 65 68 72 63 75 77 80 81 76 82 78 75 76 73 66 61 58 57 50 53 53 56 58 65 68
61 61 61 61 61 60 60 60 60 59 59 59 59 59 59 59 58 57 56 60 64 63 64 61 65 69 75 81 82 80 81 79 76 74 62 65 61 57 62 61 62 60 56 56 62 68 62
61 61 61 61 60 60 60 59 59 59 59 59 59 59 59 58 57 57 56 64 61 64 58 68 70 71 75 76 73 78 84 74 70 63 64 62 57 67 68 65 63 59 55 56 63 67 63
61 60 60 60 60 59 59 59 59 59 59 59 58 58 58 57 56 60 59 66 67 61 55 66 71 70 71 75 73 76 81 73 68 64 62 59 65 72 69 64 61 54 53 56 60 64 62
61 60 60 60 60 59 59 59 59 59 58 58 58 58 57 55 63 56 64 63 63 64 53 65 68 74 74 73 71 84 83 78 68 64 64 61 70 69 66 64 62 50 65 64 62 56 52
59 59 60 60 60 60 59 59 58 58 58 58 58 58 57 55 54 60 67 60 61 67 47 70 69 79 71 71 73 76 81 74 68 68 65 63 64 63 64 64 65 61 65 61 61 53 49
59 59 58 59 60 60 60 59 58 58 58 58 58 57 56 53 49 58 60 60 66 56 48 66 71 69 66 68 72 75 75 77 74 68 64 64 70 67 65 69 68 69 62 57 51 48 43
57 57 58 58 58 59 59 58 58 57 57 57 57 56 54 58 63 59 59 63 55 50 65 63 61 64 59 64 68 69 67 63 60 53 53 61 63 68 70 63 64 61 49 42 42 41 42
57 57 57 57 58 57 58 58 58 57 57 56 55 55 55 58 56 58 62 59 45 59 59 65 64 61 60 63 64 66 62 59 64 58 51 50 52 62 70 61 56 53 48 43 35 37 43
57 57 56 56 56 56 56 59 59 57 56 56 54 54 57 60 60 56 60 49 51 56 65 64 61 58 58 63 62 62 59 58 60 59 53 50 52 65 67 65 61 55 48 50 43 38 39
56 56 56 56 55 55 56 56 59 57 56 55 49 50 59 64 61 62 55 48 52 62 65 63 54 57 53 58 59 57 57 63 63 65 58 55 48 56 65 66 64 58 58 47 43 35 35
57 56 56 56 55 55 56 56 57 56 55 54 51 55 65 62 63 57 49 48 58 68 65 61 57 55 55 55 54 53 55 63 67 63 62 51 50 53 57 54 51 54 50 47 44 41 36
57 57 56 56 55 55 56 56 56 54 53 51 47 51 65 63 56 43 49 53 60 64 65 63 62 59 56 57 54 55 56 60 66 63 55 51 48 44 51 58 60 55 51 46 41 40 40
56 56 56 56 55 55 55 56 56 54 53 48 43 44 59 62 48 46 52 58 61 63 62 61 61 63 60 54 50 57 58 67 67 62 55 55 46 41 46 52 56 51 54 49 43 40 40
56 56 56 56 56 55 55 56 55 54 54 47 45 46 53 53 47 47 46 51 56 64 62 61 58 60 56 52 52 51 56 63 65 62 64 59 44 46 42 47 51 50 53 54 47 38 40
56 56 56 56 56 56 55 56 55 55 55 47 45 45 46 45 48 47 45 50 52 53 59 59 55 57 53 45 48 48 53 57 61 62 57 55 47 46 48 53 53 53 54 55 48 48 46
57 56 56 56 56 56 55 55 55 55 54 46 44 45 46 45 45 45 45 44 51 54 52 55 52 57 53 50 54 50 52 48 52 53 49 48 45 45 46 54 54 51 55 55 55 55 50
57 57 57 56 56 56 56 55 55 54 53 45 46 46 46 45 44 44 46 49 53 53 57 58 58 54 53 56 59 57 57 55 54 52 48 47 45 40 41 48 49 44 51 54 54 54 52
57 57 57 57 56 56 56 56 55 54 53 51 50 44 43 42 43 47 52 54 54 53 50 57 57 51 57 60 58 53 50 50 51 51 50 45 40 39 37 39 34 48 55 57 54 55 55
56 57 57 57 57 56 56 56 55 55 54 52 53 50 49 42 45 48 51 50 51 51 51 55 59 60 56 53 49 45 46 49 50 51 47 46 42 39 37 36 45 51 54 53 50 50 57
55 56 56 57 57 57 56 56 56 55 54 52 52 53 49 41 43 52 49 50 45 43 48 53 58 56 54 47 47 39 39 42 43 48 45 45 44 41 39 37 36 48 57 59 56 44 57
55 55 55 56 57 57 57 57 56 56 54 52 52 55 50 45 46 46 46 46 49 44 43 46 52 53 51 44 42 40 40 46 42 40 41 41 41 40 40 39 45 54 58 59 45 46 57
55 55 55 55 56 57 57 57 57 56 56 53 52 55 50 46 47 51 54 48 48 46 43 47 48 47 45 42 41 41 40 43 41 44 42 42 39 38 38 37 39 58 57 52 52 54 56
54 54 55 55 55 56 57 57 56 56 56 55 49 57 56 47 44 52 55 58 57 56 50 45 46 46 47 43 41 41 42 41 40 39 45 41 44 41 43 43 52 55 55 57 56 54 55

GFSGBSN_sfc_temp_111.txt.gz
Temp
63 63 62 62 62 61 61 61 61 61 61 61 61 61 61 61 61 61 61 61 61 60 61 60 60 61 65 76 82 83 80 80 84 86 88 86 83 82 79 81 81 79 82 85 88 86 85
63 62 62 62 62 61 61 61 61 61 61 61 61 60 61 61 61 61 61 61 60 60 60 60 60 61 73 79 89 86 85 85 88 88 87 87 86 87 82 81 80 82 83 84 85 85 83
62 62 62 62 62 61 61 61 61 61 61 60 60 60 60 60 61 61 60 60 60 60 60 61 62 66 76 84 89 88 88 89 89 90 86 89 89 86 85 81 83 82 79 82 83 85 85
62 62 62 62 61 61 61 61 61 61 60 60 60 60 60 60 60 60 59 59 61 62 61 62 63 70 79 88 89 86 87 88 89 91 90 91 91 87 84 84 82 78 77 76 82 83 84
62 62 61 62 61 61 61 61 60 60 60 60 60 60 60 60 60 59 58 59 63 64 64 64 71 75 82 84 87 90 91 90 88 89 90 92 89 81 83 78 77 75 71 72 75 81 80
61 61 61 62 61 61 60 60 60 60 60 59 59 59 59 59 59 58 58 60 64 65 68 72 76 76 86 84 89 89 88 91 89 87 86 84 82 80 78 79 68 70 70 73 71 79 80
61 61 61 61 61 60 60 60 59 59 59 59 59 59 59 59 59 58 64 74 78 78 77 75 76 76 81 88 89 88 89 89 88 86 79 77 78 75 77 75 75 72 70 69 75 77 75
61 61 62 61 61 60 60 60 59 59 59 59 59 58 59 58 58 57 68 76 73 74 70 76 76 76 81 84 82 87 92 85 82 76 77 77 74 78 76 74 72 71 69 71 75 76 77
60 60 60 61 60 60 60 60 59 59 59 58 58 58 58 58 56 68 71 75 75 75 70 76 78 79 83 85 83 86 91 85 80 75 75 74 77 78 77 74 72 71 71 71 71 75 76
59 59 59 59 59 60 60 59 59 58 58 58 58 58 57 55 68 67 76 73 73 74 70 76 80 84 83 84 83 90 92 87 80 76 74 75 79 76 76 74 74 71 74 73 73 71 68
57 57 57 58 58 58 58 59 59 58 58 58 58 58 56 55 66 74 74 72 75 76 60 78 81 90 85 84 84 85 90 87 79 77 76 73 75 74 74 74 75 73 74 73 72 71 68
57 57 57 57 57 57 57 57 58 58 57 57 57 57 56 60 62 71 71 72 77 68 58 74 80 79 80 81 83 85 86 88 84 78 76 75 80 79 76 77 76 75 73 69 68 69 62
57 57 56 56 56 56 56 56 57 58 57 57 56 55 57 64 76 70 71 78 68 63 73 71 73 76 74 74 78 78 78 75 75 69 68 72 73 77 78 74 75 75 71 63 60 60 60
57 56 56 56 56 55 56 56 56 57 57 56 55 55 60 66 70 67 76 73 59 66 68 75 73 73 71 73 73 74 72 71 73 72 69 66 63 72 76 73 69 68 67 61 50 55 59
57 56 56 56 55 55 55 56 56 57 57 56 54 67 72 74 70 71 75 65 64 66 70 70 72 69 69 71 72 73 70 71 73 73 68 65 65 73 75 76 73 67 64 67 59 56 56
57 56 56 56 55 55 55 56 56 57 56 55 59 64 72 73 72 76 71 57 65 71 72 72 66 69 65 68 70 70 69 73 72 74 74 68 63 70 72 74 74 72 71 62 64 50 48
57 56 56 56 55 55 55 55 56 56 54 53 64 68 76 73 75 73 65 64 66 74 73 70 69 67 67 67 68 67 66 72 73 73 74 72 67 67 70 68 67 68 66 62 63 59 53
57 56 56 56 56 55 55 55 56 54 53 55 60 65 74 74 70 59 65 64 60 71 73 72 73 71 69 68 67 67 66 68 73 74 69 67 68 63 65 69 69 68 66 65 58 54 58
56 56 56 56 56 55 55 55 56 54 53 54 55 58 72 73 64 64 64 66 68 69 70 70 69 71 71 68 63 67 67 72 73 72 69 70 64 59 60 66 68 66 67 65 61 58 56
56 56 56 56 56 56 55 55 55 54 54 54 56 59 67 66 61 62 61 62 64 70 69 69 68 71 68 65 65 64 67 71 72 71 64 69 62 61 57 60 65 61 64 66 63 56 58
56 56 56 56 56 55 56 55 55 54 54 54 57 56 55 59 61 60 60 60 61 62 67 68 67 67 66 62 63 64 66 68 70 67 69 70 61 62 65 65 65 65 64 65 62 62 56
58 57 56 56 56 56 56 56 55 54 53 58 55 55 58 58 55 58 55 58 59 62 63 64 64 66 66 64 66 63 66 65 66 68 67 64 60 59 59 65 65 61 64 64 64 64 64
57 58 57 57 56 56 55 56 55 54 53 55 56 57 56 52 56 57 60 59 59 61 65 66 64 64 64 65 68 71 73 69 69 66 62 61 60 56 53 60 60 54 61 63 64 66 65
56 56 57 57 57 56 56 56 55 54 53 54 56 55 55 53 55 57 58 59 59 60 59 64 66 64 67 70 70 71 71 68 66 65 65 59 55 56 55 54 46 62 65 65 64 65 65
56 56 56 57 57 57 57 56 56 55 54 52 56 55 54 50 54 55 58 58 60 60 60 61 66 68 68 67 64 59 62 62 62 62 62 62 58 55 52 53 57 62 62 62 60 61 65
55 56 56 56 56 57 57 56 56 55 54 54 54 55 53 50 53 56 56 58 57 58 59 62 67 68 68 65 61 53 52 56 55 59 60 59 57 57 50 47 47 59 63 67 64 56 66
55 55 56 56 56 57 57 57 56 56 54 52 53 58 52 47 57 56 55 56 60 57 58 58 61 63 63 62 58 55 55 59 53 53 55 55 53 51 52 50 57 64 65 66 53 57 66
55 55 55 55 56 56 57 57 57 56 56 53 55 58 52 48 53 57 60 57 59 59 55 59 60 58 60 56 57 58 56 58 56 57 56 55 52 51 50 49 48 65 64 58 63 66 65
54 54 55 55 55 56 56 57 57 56 55 55 49 60 57 48 52 58 61 62 62 63 59 59 57 56 62 59 57 58 55 55 52 50 56 51 57 56 55 59 62 66 65 69 67 65 66

GFSGBSN_sfc_temp_114.txt.gz
Temp
63 63 63 62 62 62 62 61 61 61 61 61 61 61 61 62 62 62 62 62 61 61 61 61 61 61 71 86 91 93 80 81 92 97 96 94 91 92 88 90 90 87 91 93 95 96 95
63 63 62 62 62 62 62 62 61 61 61 61 61 61 61 61 61 61 61 61 60 61 61 61 61 62 83 87 97 97 97 94 97 97 96 96 94 95 90 89 88 91 91 92 94 93 92
62 62 62 62 62 62 61 61 61 61 61 61 61 61 61 61 61 61 61 60 61 61 61 62 62 74 87 89 99 100 100 99 101 100 95 98 98 94 93 89 92 91 86 91 92 93 92
62 62 62 62 62 61 61 61 61 61 60 60 60 60 60 60 61 60 60 59 63 62 62 63 63 82 91 98 102 96 100 98 101 101 99 100 99 95 93 93 91 87 88 84 90 91 92
62 62 62 62 62 61 61 61 61 60 60 60 60 60 60 60 60 59 59 59 64 64 64 65 79 87 89 84 94 101 101 97 98 99 99 98 98 93 92 87 86 86 83 80 84 90 89
62 62 62 62 61 61 61 60 60 60 60 59 59 59 59 59 59 59 58 61 64 65 73 81 86 86 93 92 97 98 101 100 96 95 92 92 93 89 90 87 79 78 80 82 80 87 88
61 61 62 62 61 61 60 60 60 59 59 59 59 59 59 59 59 58 69 85 88 86 91 86 88 86 91 97 98 97 100 97 97 93 86 89 86 84 84 85 84 82 80 79 84 86 84
60 59 59 60 59 59 59 59 60 59 59 59 59 59 58 58 57 58 76 89 81 83 82 88 87 87 92 94 90 95 101 92 89 85 87 85 83 86 86 84 82 82 80 80 84 85 85
59 58 58 58 59 59 58 58 59 59 58 58 58 58 58 57 57 76 88 83 88 86 83 87 90 90 93 95 91 93 98 94 88 84 84 83 85 86 84 82 81 82 80 79 79 84 88
58 57 57 58 58 57 57 57 57 58 58 58 58 58 57 55 72 86 87 86 89 87 82 82 88 91 93 94 89 98 101 94 89 83 84 84 87 83 83 80 84 79 84 82 81 80 76
58 57 57 57 57 56 56 57 57 57 58 57 58 57 57 54 80 90 85 90 91 86 68 84 88 99 96 90 92 91 100 94 85 84 85 80 82 81 79 80 83 79 84 82 81 79 79
57 57 57 57 57 56 56 56 57 57 57 57 57 57 56 72 82 87 89 89 87 76 66 79 88 87 88 90 89 92 92 96 93 86 86 83 88 86 83 84 83 84 81 83 80 80 70
57 57 57 57 56 56 56 56 56 56 57 57 57 55 61 77 87 89 88 88 76 71 81 78 81 86 86 84 85 87 86 84 82 75 76 80 81 85 85 81 84 84 80 71 69 70 69
57 57 57 56 56 56 55 55 56 56 57 57 55 54 66 81 86 86 89 82 66 75 77 83 82 84 81 83 82 83 82 80 82 82 80 75 70 80 83 80 76 76 77 69 57 64 70
57 57 57 56 56 55 55 55 55 56 56 55 54 89 88 89 87 87 84 73 75 76 79 78 81 79 78 81 81 82 80 80 81 83 74 75 73 81 81 83 81 75 76 79 70 71 66
57 57 57 56 56 56 55 55 55 56 54 54 72 83 90 90 89 87 80 66 76 80 80 80 75 78 75 77 78 80 78 81 79 83 86 78 70 80 79 82 81 79 81 70 75 58 57
57 57 57 56 56 56 55 55 55 55 53 54 76 80 86 91 88 84 75 76 76 81 80 78 77 75 77 75 78 77 77 79 81 81 85 83 75 74 78 76 76 75 74 72 74 69 61
57 57 57 56 56 56 56 55 55 53 52 63 76 76 88 90 79 82 77 75 61 79 82 81 81 79 77 77 76 75 74 78 81 83 77 80 78 70 74 79 79 78 74 74 66 62 68
56 56 56 56 56 56 56 55 55 53 53 56 70 75 92 87 73 75 76 76 77 77 78 78 78 80 80 77 70 75 76 80 81 81 78 80 74 66 69 75 77 73 76 75 73 70 62
57 56 56 56 56 56 56 56 55 54 53 58 69 71 80 84 80 73 72 73 73 77 77 77 77 80 77 75 77 73 75 78 80 80 66 74 74 68 65 69 74 68 73 75 72 64 66
58 58 57 56 56 56 56 55 55 54 54 61 73 70 66 72 72 73 71 71 71 71 77 78 75 77 76 71 73 73 76 77 78 68 77 77 66 71 72 73 73 72 71 72 70 71 65
57 57 57 57 56 56 56 56 55 54 53 69 66 66 74 71 67 68 61 69 70 71 72 73 73 74 76 72 74 71 75 74 74 77 75 76 65 69 66 72 72 68 72 72 72 72 71
57 57 57 57 57 57 56 56 55 53 55 66 70 72 67 61 67 67 71 69 69 71 73 75 72 73 73 74 76 79 81 78 78 73 72 69 68 64 60 69 67 62 70 71 72 74 73
56 56 57 57 57 57 57 56 55 54 53 56 66 66 64 64 67 69 66 67 68 68 67 73 74 72 74 80 80 80 82 79 78 76 77 68 64 65 61 64 52 68 75 74 71 73 72
55 55 56 57 57 57 57 57 56 55 54 61 58 59 64 61 67 65 65 67 69 69 67 70 74 76 79 76 71 66 68 68 72 74 72 75 68 64 58 62 67 70 70 69 67 68 72
55 55 55 57 57 57 57 57 56 55 54 62 66 63 55 60 65 65 63 66 65 67 68 70 77 78 76 73 69 58 58 64 62 65 72 72 68 64 64 54 53 66 70 75 72 61 72
55 55 55 56 56 57 57 57 57 56 54 57 63 62 58 57 65 65 63 62 69 67 66 68 70 70 75 68 64 63 63 70 60 60 61 63 63 60 61 58 64 72 73 74 57 60 73
55 55 55 55 56 56 57 57 58 57 56 57 60 64 54 53 62 64 66 63 66 67 63 68 67 68 69 62 64 66 65 68 64 67 65 62 60 61 62 57 54 73 71 63 69 73 75
55 55 55 55 55 55 56 57 57 57 56 56 57 68 62 51 60 66 67 69 69 68 64 68 66 64 70 66 68 69 66 67 63 59 70 59 66 63 64 65 70 74 71 75 75 72 73

GFSGBSN_sfc_temp_117.txt.gz
Temp
63 63 63 63 62 62 62 62 62 61 61 62 62 62 62 62 62 62 62 62 62 61 62 62 62 62 70 88 95 96 80 82 94 97 101 99 96 96 92 96 96 93 95 97 100 99 98
63 63 63 63 63 62 62 62 62 61 61 61 61 61 61 61 61 61 61 61 61 61 62 62 62 62 81 90 105 103 100 97 101 102 102 102 99 101 96 94 93 98 96 96 98 97 97
63 63 63 63 62 62 62 62 62 61 61 61 60 60 60 61 61 61 61 60 61 63 62 62 62 76 93 93 107 107 105 103 106 105 101 104 105 99 99 94 99 96 91 96 96 97 96
63 63 63 62 62 62 62 61 61 61 61 60 60 60 60 60 60 60 60 60 63 64 63 64 64 85 93 105 110 104 107 104 107 108 106 107 105 101 97 100 96 93 95 87 94 96 96
62 62 62 62 61 61 61 61 61 60 60 60 60 59 60 60 60 60 59 60 65 65 65 65 79 89 92 91 100 107 108 102 103 105 105 104 103 98 98 91 90 91 86 85 88 95 94
61 60 61 61 61 60 60 60 60 60 60 59 59 59 59 59 59 59 58 59 65 64 72 87 93 91 98 96 102 105 108 105 100 100 97 96 96 92 94 92 81 84 85 87 84 92 93
60 59 59 60 60 59 59 59 59 59 59 59 59 58 58 59 59 58 67 87 87 87 93 95 97 93 98 104 105 102 106 102 101 96 89 94 89 87 90 91 90 88 85 84 88 92 89
59 59 58 59 59 58 58 58 58 58 58 58 58 58 58 58 58 58 72 96 89 91 88 98 96 96 100 103 95 100 107 95 93 88 92 89 86 92 91 91 88 87 85 85 89 91 89
58 58 58 58 58 57 57 57 58 58 58 58 58 58 58 58 57 73 96 91 98 97 87 93 98 98 99 101 96 97 102 98 92 89 90 87 90 91 89 88 86 88 84 84 83 89 92
58 58 58 58 57 57 57 57 57 57 57 57 58 58 57 55 70 98 95 98 101 98 83 87 92 97 99 101 93 105 105 98 93 89 89 90 92 88 87 85 88 83 88 86 85 83 78
58 58 58 57 57 57 56 56 56 56 56 57 58 58 57 54 83 96 95 102 100 95 70 91 94 106 103 95 98 96 106 99 90 89 90 85 87 86 84 85 88 84 89 86 85 83 83
58 58 58 57 57 57 56 56 56 56 56 57 57 57 56 79 88 98 101 101 96 79 69 84 93 91 92 95 95 98 96 101 99 90 91 89 94 91 89 89 89 90 87 87 87 85 74
58 58 57 57 57 56 56 56 56 56 56 56 56 55 59 84 94 101 100 95 79 74 89 85 87 92 92 90 91 92 89 87 85 78 80 86 87 91 91 85 90 88 84 73 72 73 74
58 57 57 57 57 56 56 56 56 56 56 55 54 54 70 90 98 99 96 86 70 83 84 90 89 91 87 91 90 89 88 85 91 87 84 79 74 85 89 85 82 83 80 72 61 68 74
58 58 57 57 56 56 56 56 56 55 55 54 53 94 95 99 100 96 88 76 79 84 87 85 88 84 85 87 87 87 86 87 90 90 79 79 78 88 87 88 86 81 76 86 74 78 72
58 57 57 57 56 56 56 56 56 55 54 54 71 89 95 100 100 93 83 71 83 88 87 87 80 86 81 85 83 85 85 89 86 89 91 84 74 87 86 88 88 83 87 74 77 62 61
58 58 57 57 57 56 56 56 55 55 54 53 74 87 95 103 98 87 78 83 85 89 88 84 83 83 83 83 84 85 84 87 88 88 91 89 81 80 83 80 79 80 79 78 80 75 65
57 57 57 57 57 56 56 56 55 54 53 65 83 80 97 100 82 87 83 84 63 86 89 87 86 86 83 84 82 83 81 85 89 90 82 87 82 75 79 86 86 84 79 80 71 67 74
57 57 57 57 56 56 56 56 55 54 53 56 77 83 100 95 77 83 86 83 85 84 85 85 83 87 87 82 76 81 83 87 87 87 81 85 78 70 73 82 84 76 80 81 79 76 66
58 58 57 57 56 56 56 56 55 55 54 62 75 77 87 88 89 80 81 79 79 84 84 84 84 85 83 80 83 78 80 84 86 86 71 78 78 72 69 73 79 74 77 80 78 69 70
57 58 58 57 57 57 56 56 55 55 54 63 80 79 77 79 82 80 80 80 78 78 83 84 81 82 81 76 79 78 83 83 84 71 80 81 70 74 77 78 79 77 76 77 75 76 69
57 57 58 57 57 57 56 56 56 55 53 70 72 73 80 78 76 75 66 76 76 80 79 78 78 83 83 77 79 77 82 81 79 83 79 83 70 72 70 76 76 73 76 77 77 77 76
56 56 57 57 57 57 57 56 56 54 55 73 77 79 74 68 76 75 77 78 76 80 80 83 80 79 78 80 85 87 88 87 84 79 77 76 72 68 64 74 74 66 74 76 77 79 78
56 56 56 57 57 57 58 57 56 55 53 69 72 70 69 69 76 75 77 75 75 76 74 80 80 77 81 87 86 87 87 85 84 82 83 72 69 69 64 68 56 74 81 80 76 77 78
56 56 56 56 57 57 58 57 57 55 54 65 72 67 69 67 74 73 73 73 76 75 73 75 80 83 85 81 74 69 72 73 76 81 79 81 73 67 62 64 70 75 77 74 72 71 79
56 56 56 56 57 57 58 58 57 56 54 62 73 73 68 65 72 73 70 72 70 73 74 76 83 85 82 76 73 61 61 67 67 72 80 78 74 67 66 59 57 71 76 81 78 64 76
56 56 56 56 56 57 57 58 58 57 55 59 69 70 67 64 73 71 69 68 74 73 71 76 76 77 80 71 67 66 67 74 65 65 65 67 67 63 64 61 67 78 79 80 61 64 76
55 55 55 56 56 56 57 57 58 58 56 59 68 71 66 64 69 71 72 68 71 71 67 72 73 73 72 66 67 68 69 72 71 72 70 67 64 64 65 61 57 79 76 67 70 76 78
55 55 55 55 56 56 56 57 57 58 57 56 63 71 68 59 65 72 72 74 73 73 70 71 70 70 75 71 72 72 69 72 69 64 76 64 71 67 69 63 73 78 75 78 79 76 77

GFSGBSN_sfc_temp_123.txt.gz
Temp
64 64 63 62 62 61 61 61 61 61 61 61 61 61 61 61 61 61 62 61 61 61 62 62 63 63 60 68 81 86 81 81 86 89 89 88 86 84 78 83 88 82 86 89 90 90 87
62 62 61 61 61 61 61 61 61 61 60 60 61 61 61 61 61 61 61 61 61 61 63 63 63 63 65 73 95 89 89 86 91 88 89 90 89 91 85 85 82 88 87 88 89 91 91
61 61 61 61 61 61 60 60 61 60 60 60 60 60 60 60 61 61 61 60 61 63 64 63 63 68 78 82 96 92 91 88 92 91 89 95 96 86 87 83 91 88 79 84 87 87 85
60 61 61 61 60 60 60 60 60 59 59 59 59 59 60 60 60 60 60 59 61 65 64 64 64 69 71 98 97 99 94 92 96 94 94 97 96 88 84 89 86 81 75 66 84 88 87
60 60 60 60 60 59 59 59 59 59 59 59 59 59 59 59 59 59 59 59 61 67 66 65 62 65 77 93 95 97 97 95 96 96 95 104 92 81 84 75 70 72 67 72 78 88 86
59 59 60 60 60 59 59 59 58 58 58 58 58 58 58 59 59 59 59 60 64 64 66 75 81 72 85 89 95 99 99 100 95 93 90 87 80 73 73 66 59 67 71 76 75 82 83
59 59 59 59 59 59 58 58 58 58 58 58 58 58 58 58 59 58 59 71 70 68 76 76 80 84 93 98 101 96 99 96 94 86 75 82 69 66 74 78 79 79 76 75 81 86 79
59 58 58 59 59 58 58 57 57 57 57 57 57 57 57 57 57 58 56 71 79 82 73 89 91 92 99 99 90 95 99 85 84 75 81 74 69 81 87 86 81 79 74 73 79 85 78
58 58 58 58 58 58 57 57 57 57 57 57 57 57 57 56 57 63 77 82 93 88 71 85 93 91 90 91 90 90 92 88 82 77 79 72 79 91 88 82 80 73 69 72 72 80 77
58 58 58 58 58 57 57 57 57 57 57 57 57 57 56 54 67 80 82 91 93 89 62 79 84 90 94 92 85 100 97 91 84 79 82 78 87 87 82 82 78 65 82 81 78 70 59
58 58 58 58 57 57 57 57 57 57 56 56 56 56 55 54 62 75 87 93 91 83 53 85 86 100 93 86 89 91 99 90 81 82 76 75 80 80 79 81 83 72 81 77 76 67 61
58 58 58 58 57 57 57 57 56 56 56 56 56 56 55 65 66 77 87 93 84 62 57 82 89 84 82 86 89 93 90 92 90 83 82 81 88 83 80 87 84 84 77 73 70 64 53
58 58 58 58 57 57 57 56 56 56 56 56 55 54 54 68 72 88 88 82 61 57 85 79 79 83 80 80 84 86 82 76 70 61 64 77 81 84 88 76 81 77 62 52 51 51 52
59 58 58 58 57 57 57 56 56 56 56 55 54 53 60 70 78 85 81 67 55 75 80 88 85 83 77 82 82 84 79 72 79 75 67 63 63 79 85 76 68 68 61 52 44 48 54
58 58 58 57 57 57 56 56 56 56 55 55 53 70 75 81 81 83 70 58 64 75 85 84 83 74 75 83 82 81 77 76 80 79 65 63 66 84 86 85 78 68 60 66 56 55 53
58 58 58 57 57 57 57 56 56 56 55 54 54 66 75 91 92 81 65 58 70 82 86 84 72 77 70 77 75 75 74 81 83 84 79 66 59 74 84 84 79 70 73 57 56 45 45
58 58 58 57 57 57 57 56 56 55 54 54 58 68 86 95 89 71 60 66 78 88 88 79 75 73 75 75 76 72 75 83 86 83 81 69 64 67 76 68 68 66 61 62 60 56 47
58 58 57 57 57 57 56 56 55 54 53 57 63 63 88 91 68 68 65 74 73 84 86 79 78 77 74 76 72 74 75 78 86 83 74 70 65 56 66 77 82 72 68 63 52 51 52
58 58 57 57 57 57 56 56 55 54 53 50 55 66 85 85 61 66 74 79 84 83 81 78 77 80 80 72 65 75 79 84 86 76 65 68 59 52 59 66 72 68 70 65 63 57 51
57 57 57 57 57 57 57 56 56 55 54 52 57 61 72 74 74 69 68 72 75 86 81 83 77 79 74 70 72 69 75 83 82 78 72 73 61 57 51 56 65 64 71 70 63 52 53
57 57 57 57 57 57 57 56 56 55 55 52 61 64 68 63 68 69 70 72 73 74 81 78 71 75 72 63 67 68 75 76 79 72 73 68 56 56 61 69 71 69 69 70 61 60 54
57 57 57 57 57 57 57 57 56 55 54 56 59 61 65 63 67 68 67 68 72 76 74 74 71 78 74 63 66 64 68 67 68 67 66 67 56 55 57 69 69 67 70 70 70 69 66
57 57 57 57 57 57 57 57 56 54 54 59 64 66 62 60 65 65 67 70 74 77 78 81 78 73 69 71 74 73 74 73 68 66 64 62 58 54 48 63 63 55 63 67 68 70 66
57 57 57 56 57 57 57 57 57 55 54 54 59 59 57 56 63 66 72 76 76 72 69 78 77 70 73 80 77 75 74 72 73 68 68 61 58 55 48 53 43 60 71 74 72 73 71
56 56 56 56 57 57 57 57 57 56 55 54 58 59 58 54 62 66 68 69 72 70 71 73 78 75 77 72 62 58 59 60 66 70 67 65 58 51 47 48 56 64 68 66 61 62 70
56 56 56 56 57 57 57 57 57 57 55 55 57 64 60 54 59 64 63 67 63 63 66 72 78 77 73 64 59 48 49 55 56 61 68 66 60 55 50 46 45 58 71 77 72 53 68
56 56 56 56 56 56 57 57 57 57 56 54 55 60 59 53 61 62 60 60 66 63 60 65 66 68 72 59 54 52 54 62 55 54 55 56 56 53 51 48 56 67 73 76 53 53 68
56 56 56 56 56 56 56 57 57 57 57 55 55 60 59 55 58 64 64 59 61 61 55 59 61 63 61 55 55 56 54 58 56 57 55 55 52 51 52 49 47 69 69 58 60 64 68
55 56 56 55 56 56 56 57 57 57 57 57 52 63 66 57 57 65 66 68 66 66 60 60 57 58 62 57 56 56 54 56 53 51 61 52 58 57 58 56 62 69 66 67 65 65 66